Observation data for Odell on 12/08/2019      Previous  Date       Current Mesonet Observations  Soil Data  Daily Summary Page  Observations in Plain Language
KOD1 080600Z 14013KT 09/02 A2999 RMK A01 T00850023  RH  065%=      5-min Rain = 0
KOD1 080601Z 15013KT 09/02 A2999 RMK A01 T00850023  RH  065%=      5-min Rain = 0
KOD1 080602Z 14012KT 09/02 A2999 RMK A01 T00850023  RH  065%=      5-min Rain = 0
KOD1 080603Z 14012KT 08/02 A2999 RMK A01 T00840023  RH  065%=      5-min Rain = 0
KOD1 080604Z 14012KT 08/02 A2999 RMK A01 T00830023  RH  066%=      5-min Rain = 0
KOD1 080605Z 14012KT 08/02 A2999 RMK A01 T00830023  RH  066%=      5-min Rain = 0
KOD1 080606Z 14012KT 08/02 A2999 RMK A01 T00820023  RH  066%=      5-min Rain = 0
KOD1 080607Z 15013KT 08/02 A2999 RMK A01 T00810023  RH  067%=      5-min Rain = 0
KOD1 080608Z 15013KT 08/02 A2998 RMK A01 T00820023  RH  066%=      5-min Rain = 0
KOD1 080609Z 14014KT 08/02 A2998 RMK A01 T00820023  RH  066%=      5-min Rain = 0
KOD1 080610Z 15013KT 08/02 A2998 RMK A01 T00840023  RH  066%=      5-min Rain = 0
KOD1 080611Z 15013KT 09/02 A2998 RMK A01 T00850023  RH  065%=      5-min Rain = 0
KOD1 080612Z 15013KT 08/02 A2998 RMK A01 T00840023  RH  065%=      5-min Rain = 0
KOD1 080613Z 15013KT 08/02 A2998 RMK A01 T00840023  RH  066%=      5-min Rain = 0
KOD1 080614Z 15013KT 08/02 A2998 RMK A01 T00830023  RH  066%=      5-min Rain = 0
KOD1 080615Z 14012KT 08/02 A2998 RMK A01 T00830023  RH  066%=      5-min Rain = 0
KOD1 080616Z 15014KT 08/02 A2998 RMK A01 T00830023  RH  066%=      5-min Rain = 0
KOD1 080617Z 14015KT 08/02 A2997 RMK A01 T00840023  RH  066%=      5-min Rain = 0
KOD1 080618Z 14015KT 09/02 A2997 RMK A01 T00850023  RH  065%=      5-min Rain = 0
KOD1 080619Z 14014KT 09/02 A2997 RMK A01 T00850023  RH  065%=      5-min Rain = 0
KOD1 080620Z 14014KT 09/02 A2997 RMK A01 T00850023  RH  065%=      5-min Rain = 0
KOD1 080621Z 14014KT 09/02 A2997 RMK A01 T00850023  RH  065%=      5-min Rain = 0
KOD1 080622Z 14013KT 08/02 A2997 RMK A01 T00840023  RH  065%=      5-min Rain = 0
KOD1 080623Z 14014KT 08/02 A2997 RMK A01 T00830023  RH  066%=      5-min Rain = 0
KOD1 080624Z 14014KT 08/02 A2997 RMK A01 T00830023  RH  066%=      5-min Rain = 0
KOD1 080625Z 13014KT 08/02 A2997 RMK A01 T00830023  RH  066%=      5-min Rain = 0
KOD1 080626Z 14015KT 08/02 A2997 RMK A01 T00810022  RH  066%=      5-min Rain = 0
KOD1 080627Z 14013KT 08/02 A2997 RMK A01 T00810023  RH  067%=      5-min Rain = 0
KOD1 080628Z 14013KT 08/02 A2997 RMK A01 T00800022  RH  067%=      5-min Rain = 0
KOD1 080629Z 14012KT 08/02 A2998 RMK A01 T00800022  RH  067%=      5-min Rain = 0
KOD1 080630Z 14012KT 08/02 A2998 RMK A01 T00780022  RH  068%=      5-min Rain = 0
KOD1 080631Z 14012KT 08/02 A2998 RMK A01 T00770023  RH  068%=      5-min Rain = 0
KOD1 080632Z 14012G17KT 08/02 A2998 RMK A01 T00770022  RH  068%=      5-min Rain = 0
KOD1 080633Z 14013KT 08/02 A2998 RMK A01 T00770022  RH  068%=      5-min Rain = 0
KOD1 080634Z 14012KT 08/02 A2998 RMK A01 T00770023  RH  068%=      5-min Rain = 0
KOD1 080635Z 14011KT 08/02 A2998 RMK A01 T00770022  RH  068%=      5-min Rain = 0
KOD1 080636Z 14012KT 08/02 A2998 RMK A01 T00770023  RH  069%=      5-min Rain = 0
KOD1 080637Z 14012KT 08/02 A2998 RMK A01 T00780023  RH  068%=      5-min Rain = 0
KOD1 080638Z 14011KT 08/02 A2998 RMK A01 T00780023  RH  068%=      5-min Rain = 0
KOD1 080639Z 14011KT 08/02 A2998 RMK A01 T00770022  RH  068%=      5-min Rain = 0
KOD1 080640Z 14011KT 08/02 A2997 RMK A01 T00770023  RH  068%=      5-min Rain = 0
KOD1 080641Z 14013KT 08/02 A2997 RMK A01 T00770023  RH  068%=      5-min Rain = 0
KOD1 080642Z 14011KT 08/02 A2997 RMK A01 T00770022  RH  068%=      5-min Rain = 0
KOD1 080643Z 14013KT 08/02 A2997 RMK A01 T00770023  RH  069%=      5-min Rain = 0
KOD1 080644Z 14013KT 08/02 A2997 RMK A01 T00770022  RH  068%=      5-min Rain = 0
KOD1 080645Z 14011KT 08/02 A2997 RMK A01 T00760022  RH  069%=      5-min Rain = 0
KOD1 080646Z 14012KT 08/02 A2997 RMK A01 T00760022  RH  069%=      5-min Rain = 0
KOD1 080647Z 14011KT 08/02 A2997 RMK A01 T00750022  RH  069%=      5-min Rain = 0
KOD1 080648Z 15012KT 08/02 A2997 RMK A01 T00760023  RH  069%=      5-min Rain = 0
KOD1 080649Z 15013KT 08/02 A2997 RMK A01 T00760022  RH  069%=      5-min Rain = 0
KOD1 080650Z 14013KT 08/02 A2997 RMK A01 T00760022  RH  069%=      5-min Rain = 0
KOD1 080651Z 14015KT 08/02 A2996 RMK A01 T00770022  RH  068%=      5-min Rain = 0
KOD1 080652Z 14014KT 08/02 A2996 RMK A01 T00770022  RH  068%=      5-min Rain = 0
KOD1 080653Z 15012KT 08/02 A2996 RMK A01 T00770022  RH  068%=      5-min Rain = 0
KOD1 080654Z 15013KT 08/02 A2996 RMK A01 T00760022  RH  069%=      5-min Rain = 0
KOD1 080655Z 15012KT 08/02 A2997 RMK A01 T00780023  RH  068%=      5-min Rain = 0
KOD1 080656Z 15012KT 08/02 A2996 RMK A01 T00770022  RH  068%=      5-min Rain = 0
KOD1 080657Z 15013KT 08/02 A2996 RMK A01 T00760022  RH  069%=      5-min Rain = 0
KOD1 080658Z 15014KT 08/02 A2996 RMK A01 T00750022  RH  069%=      5-min Rain = 0
KOD1 080659Z 15014KT 08/02 A2996 RMK A01 T00750022  RH  069%=      5-min Rain = 0
KOD1 080700Z 14014KT 08/02 A2996 RMK A01 T00760022  RH  069%=      5-min Rain = 0
KOD1 080701Z 14016KT 08/02 A2996 RMK A01 T00760022  RH  069%=      5-min Rain = 0
KOD1 080702Z 14017KT 08/02 A2996 RMK A01 T00760022  RH  069%=      5-min Rain = 0
KOD1 080703Z 15015KT 08/02 A2996 RMK A01 T00760022  RH  068%=      5-min Rain = 0
KOD1 080704Z 15016KT 08/02 A2996 RMK A01 T00760022  RH  069%=      5-min Rain = 0
KOD1 080705Z 15014KT 08/02 A2995 RMK A01 T00770022  RH  068%=      5-min Rain = 0
KOD1 080706Z 15012KT 08/02 A2996 RMK A01 T00780022  RH  068%=      5-min Rain = 0
KOD1 080707Z 15014KT 08/02 A2996 RMK A01 T00770022  RH  068%=      5-min Rain = 0
KOD1 080708Z 15013KT 08/02 A2996 RMK A01 T00780023  RH  068%=      5-min Rain = 0
KOD1 080709Z 15013KT 08/02 A2995 RMK A01 T00790023  RH  068%=      5-min Rain = 0
KOD1 080710Z 15015KT 08/02 A2995 RMK A01 T00790023  RH  067%=      5-min Rain = 0
KOD1 080711Z 14014KT 08/02 A2995 RMK A01 T00790023  RH  067%=      5-min Rain = 0
KOD1 080712Z 14014KT 08/02 A2995 RMK A01 T00800023  RH  067%=      5-min Rain = 0
KOD1 080713Z 15013KT 08/02 A2995 RMK A01 T00800023  RH  067%=      5-min Rain = 0
KOD1 080714Z 15013KT 08/02 A2995 RMK A01 T00790023  RH  068%=      5-min Rain = 0
KOD1 080715Z 15013KT 08/02 A2995 RMK A01 T00790023  RH  068%=      5-min Rain = 0
KOD1 080716Z 14013KT 08/02 A2995 RMK A01 T00800023  RH  067%=      5-min Rain = 0
KOD1 080717Z 15013KT 08/02 A2995 RMK A01 T00790023  RH  068%=      5-min Rain = 0
KOD1 080718Z 16013KT 08/02 A2995 RMK A01 T00790023  RH  068%=      5-min Rain = 0
KOD1 080719Z 15012KT 08/02 A2995 RMK A01 T00810023  RH  067%=      5-min Rain = 0
KOD1 080720Z 15012KT 08/02 A2995 RMK A01 T00800023  RH  067%=      5-min Rain = 0
KOD1 080721Z 15012KT 08/02 A2995 RMK A01 T00790023  RH  068%=      5-min Rain = 0
KOD1 080722Z 14013KT 08/02 A2994 RMK A01 T00780023  RH  068%=      5-min Rain = 0
KOD1 080723Z 15013KT 08/02 A2995 RMK A01 T00780023  RH  068%=      5-min Rain = 0
KOD1 080724Z 15011KT 08/02 A2995 RMK A01 T00780023  RH  068%=      5-min Rain = 0
KOD1 080725Z 15013KT 08/02 A2994 RMK A01 T00780023  RH  068%=      5-min Rain = 0
KOD1 080726Z 15013KT 08/02 A2994 RMK A01 T00800023  RH  067%=      5-min Rain = 0
KOD1 080727Z 15012KT 08/02 A2994 RMK A01 T00810023  RH  067%=      5-min Rain = 0
KOD1 080728Z 15013KT 08/02 A2994 RMK A01 T00810023  RH  067%=      5-min Rain = 0
KOD1 080729Z 15013KT 08/02 A2994 RMK A01 T00810023  RH  067%=      5-min Rain = 0
KOD1 080730Z 15014KT 08/02 A2994 RMK A01 T00810023  RH  067%=      5-min Rain = 0
KOD1 080731Z 15013KT 08/02 A2994 RMK A01 T00810023  RH  067%=      5-min Rain = 0
KOD1 080732Z 15014KT 08/02 A2994 RMK A01 T00810023  RH  067%=      5-min Rain = 0
KOD1 080733Z 15012KT 08/02 A2994 RMK A01 T00810023  RH  067%=      5-min Rain = 0
KOD1 080734Z 15012KT 08/02 A2994 RMK A01 T00790023  RH  067%=      5-min Rain = 0
KOD1 080735Z 15012KT 08/02 A2994 RMK A01 T00780023  RH  068%=      5-min Rain = 0
KOD1 080736Z 15011KT 08/02 A2994 RMK A01 T00780023  RH  068%=      5-min Rain = 0
KOD1 080737Z 15012KT 08/02 A2994 RMK A01 T00780023  RH  068%=      5-min Rain = 0
KOD1 080738Z 15012KT 08/02 A2993 RMK A01 T00780023  RH  068%=      5-min Rain = 0
KOD1 080739Z 15013KT 08/02 A2993 RMK A01 T00780023  RH  068%=      5-min Rain = 0
KOD1 080740Z 15013KT 08/02 A2993 RMK A01 T00780024  RH  069%=      5-min Rain = 0
KOD1 080741Z 15012KT 08/02 A2993 RMK A01 T00780023  RH  068%=      5-min Rain = 0
KOD1 080742Z 15012KT 08/02 A2993 RMK A01 T00780023  RH  068%=      5-min Rain = 0
KOD1 080743Z 15011KT 08/02 A2994 RMK A01 T00770023  RH  069%=      5-min Rain = 0
KOD1 080744Z 15011KT 08/02 A2994 RMK A01 T00750023  RH  069%=      5-min Rain = 0
KOD1 080745Z 16012KT 07/02 A2994 RMK A01 T00740023  RH  070%=      5-min Rain = 0
KOD1 080746Z 15011KT 07/02 A2994 RMK A01 T00740023  RH  070%=      5-min Rain = 0
KOD1 080747Z 16012KT 07/02 A2994 RMK A01 T00740023  RH  070%=      5-min Rain = 0
KOD1 080748Z 16012KT 07/02 A2994 RMK A01 T00740023  RH  070%=      5-min Rain = 0
KOD1 080749Z 15012KT 07/02 A2993 RMK A01 T00740023  RH  070%=      5-min Rain = 0
KOD1 080750Z 15012KT 08/02 A2993 RMK A01 T00750023  RH  070%=      5-min Rain = 0
KOD1 080751Z 16012KT 08/02 A2993 RMK A01 T00750023  RH  069%=      5-min Rain = 0
KOD1 080752Z 16013KT 08/02 A2993 RMK A01 T00750023  RH  070%=      5-min Rain = 0
KOD1 080753Z 16012KT 08/02 A2993 RMK A01 T00750023  RH  069%=      5-min Rain = 0
KOD1 080754Z 16012KT 07/02 A2993 RMK A01 T00740023  RH  070%=      5-min Rain = 0
KOD1 080755Z 16012KT 07/02 A2993 RMK A01 T00740023  RH  070%=      5-min Rain = 0
KOD1 080756Z 16012KT 07/02 A2993 RMK A01 T00740023  RH  070%=      5-min Rain = 0
KOD1 080757Z 16012KT 07/02 A2993 RMK A01 T00740023  RH  070%=      5-min Rain = 0
KOD1 080758Z 16012KT 07/02 A2993 RMK A01 T00730023  RH  070%=      5-min Rain = 0
KOD1 080759Z 16013KT 07/02 A2993 RMK A01 T00740023  RH  070%=      5-min Rain = 0
KOD1 080800Z 16012KT 07/02 A2993 RMK A01 T00740023  RH  070%=      5-min Rain = 0
KOD1 080801Z 16012KT 07/02 A2993 RMK A01 T00740023  RH  070%=      5-min Rain = 0
KOD1 080802Z 16013KT 07/02 A2992 RMK A01 T00730023  RH  070%=      5-min Rain = 0
KOD1 080803Z 16012KT 07/02 A2992 RMK A01 T00740023  RH  070%=      5-min Rain = 0
KOD1 080804Z 16013KT 08/02 A2992 RMK A01 T00750023  RH  070%=      5-min Rain = 0
KOD1 080805Z 16013KT 08/02 A2992 RMK A01 T00750023  RH  070%=      5-min Rain = 0
KOD1 080806Z 16014KT 08/02 A2992 RMK A01 T00750023  RH  070%=      5-min Rain = 0
KOD1 080807Z 15012KT 08/02 A2992 RMK A01 T00750023  RH  070%=      5-min Rain = 0
KOD1 080808Z 16013KT 07/02 A2992 RMK A01 T00740023  RH  070%=      5-min Rain = 0
KOD1 080809Z 16012KT 07/02 A2992 RMK A01 T00740023  RH  070%=      5-min Rain = 0
KOD1 080810Z 16013KT 07/02 A2992 RMK A01 T00740024  RH  070%=      5-min Rain = 0
KOD1 080811Z 16013KT 08/02 A2992 RMK A01 T00750024  RH  070%=      5-min Rain = 0
KOD1 080812Z 15013KT 08/02 A2992 RMK A01 T00750023  RH  070%=      5-min Rain = 0
KOD1 080813Z 16012KT 08/02 A2992 RMK A01 T00760023  RH  069%=      5-min Rain = 0
KOD1 080814Z 16011KT 08/02 A2992 RMK A01 T00750023  RH  070%=      5-min Rain = 0
KOD1 080815Z 16012KT 08/02 A2992 RMK A01 T00750024  RH  070%=      5-min Rain = 0
KOD1 080816Z 16012KT 08/02 A2992 RMK A01 T00750024  RH  070%=      5-min Rain = 0
KOD1 080817Z 16011KT 08/02 A2992 RMK A01 T00750024  RH  070%=      5-min Rain = 0
KOD1 080818Z 16012KT 08/02 A2992 RMK A01 T00750024  RH  070%=      5-min Rain = 0
KOD1 080819Z 16012KT 08/02 A2992 RMK A01 T00750024  RH  070%=      5-min Rain = 0
KOD1 080820Z 16011KT 08/02 A2992 RMK A01 T00760024  RH  070%=      5-min Rain = 0
KOD1 080821Z 17011KT 08/02 A2992 RMK A01 T00760024  RH  070%=      5-min Rain = 0
KOD1 080822Z 16011KT 08/02 A2992 RMK A01 T00770024  RH  069%=      5-min Rain = 0
KOD1 080823Z 17012KT 08/02 A2992 RMK A01 T00780024  RH  069%=      5-min Rain = 0
KOD1 080824Z 16013KT 08/03 A2992 RMK A01 T00780025  RH  069%=      5-min Rain = 0
KOD1 080825Z 16012KT 08/02 A2992 RMK A01 T00800024  RH  068%=      5-min Rain = 0
KOD1 080826Z 16012KT 08/02 A2992 RMK A01 T00800024  RH  068%=      5-min Rain = 0
KOD1 080827Z 16013KT 08/02 A2992 RMK A01 T00800024  RH  068%=      5-min Rain = 0
KOD1 080828Z 16012KT 08/02 A2992 RMK A01 T00790024  RH  068%=      5-min Rain = 0
KOD1 080829Z 16012KT 08/02 A2992 RMK A01 T00790024  RH  068%=      5-min Rain = 0
KOD1 080830Z 16012KT 08/02 A2991 RMK A01 T00790024  RH  068%=      5-min Rain = 0
KOD1 080831Z 16012KT 08/02 A2992 RMK A01 T00780024  RH  068%=      5-min Rain = 0
KOD1 080832Z 16012KT 08/02 A2991 RMK A01 T00780024  RH  069%=      5-min Rain = 0
KOD1 080833Z 17012KT 08/02 A2991 RMK A01 T00770024  RH  069%=      5-min Rain = 0
KOD1 080834Z 16012KT 08/02 A2991 RMK A01 T00770024  RH  069%=      5-min Rain = 0
KOD1 080835Z 17012KT 08/02 A2991 RMK A01 T00770024  RH  069%=      5-min Rain = 0
KOD1 080836Z 17013KT 08/02 A2991 RMK A01 T00770024  RH  069%=      5-min Rain = 0
KOD1 080837Z 17013KT 08/03 A2991 RMK A01 T00790025  RH  069%=      5-min Rain = 0
KOD1 080838Z 17014KT 08/03 A2991 RMK A01 T00800025  RH  068%=      5-min Rain = 0
KOD1 080839Z 17014KT 08/03 A2991 RMK A01 T00800025  RH  068%=      5-min Rain = 0
KOD1 080840Z 17015KT 08/03 A2991 RMK A01 T00800025  RH  068%=      5-min Rain = 0
KOD1 080841Z 17014KT 08/03 A2991 RMK A01 T00820025  RH  067%=      5-min Rain = 0
KOD1 080842Z 17014KT 08/03 A2991 RMK A01 T00820025  RH  067%=      5-min Rain = 0
KOD1 080843Z 17014KT 08/03 A2991 RMK A01 T00810025  RH  067%=      5-min Rain = 0
KOD1 080844Z 17015KT 08/03 A2991 RMK A01 T00820025  RH  067%=      5-min Rain = 0
KOD1 080845Z 17013KT 08/03 A2991 RMK A01 T00830025  RH  067%=      5-min Rain = 0
KOD1 080846Z 17013KT 08/03 A2991 RMK A01 T00820025  RH  067%=      5-min Rain = 0
KOD1 080847Z 17014KT 08/03 A2991 RMK A01 T00810025  RH  067%=      5-min Rain = 0
KOD1 080848Z 17014KT 08/03 A2991 RMK A01 T00810025  RH  068%=      5-min Rain = 0
KOD1 080849Z 17014KT 08/03 A2991 RMK A01 T00820025  RH  067%=      5-min Rain = 0
KOD1 080850Z 17014KT 08/03 A2991 RMK A01 T00820025  RH  067%=      5-min Rain = 0
KOD1 080851Z 17013KT 08/03 A2991 RMK A01 T00810025  RH  067%=      5-min Rain = 0
KOD1 080852Z 17013KT 08/03 A2991 RMK A01 T00810025  RH  068%=      5-min Rain = 0
KOD1 080853Z 17012KT 08/03 A2991 RMK A01 T00810025  RH  068%=      5-min Rain = 0
KOD1 080854Z 17013KT 08/03 A2991 RMK A01 T00800025  RH  068%=      5-min Rain = 0
KOD1 080855Z 17011KT 08/03 A2991 RMK A01 T00800025  RH  068%=      5-min Rain = 0
KOD1 080856Z 17012KT 08/03 A2991 RMK A01 T00800025  RH  068%=      5-min Rain = 0
KOD1 080857Z 16014KT 08/03 A299 RMK A01 T00800025  RH  068%=      5-min Rain = 0
KOD1 080858Z 17013KT 08/03 A2991 RMK A01 T00800025  RH  068%=      5-min Rain = 0
KOD1 080859Z 17013KT 08/03 A2991 RMK A01 T00800025  RH  068%=      5-min Rain = 0
KOD1 080900Z 17012KT 08/03 A299 RMK A01 T00800025  RH  068%=      5-min Rain = 0
KOD1 080901Z 17013KT 08/03 A299 RMK A01 T00810026  RH  068%=      5-min Rain = 0
KOD1 080902Z 17014KT 08/03 A299 RMK A01 T00810026  RH  068%=      5-min Rain = 0
KOD1 080903Z 17014KT 08/03 A299 RMK A01 T00820026  RH  068%=      5-min Rain = 0
KOD1 080904Z 17013KT 08/03 A299 RMK A01 T00820026  RH  068%=      5-min Rain = 0
KOD1 080905Z 17014KT 08/03 A299 RMK A01 T00810026  RH  068%=      5-min Rain = 0
KOD1 080906Z 17013KT 08/03 A299 RMK A01 T00810026  RH  068%=      5-min Rain = 0
KOD1 080907Z 17013KT 08/03 A299 RMK A01 T00800026  RH  068%=      5-min Rain = 0
KOD1 080908Z 17013KT 08/03 A299 RMK A01 T00800026  RH  069%=      5-min Rain = 0
KOD1 080909Z 17013KT 08/03 A299 RMK A01 T00800026  RH  069%=      5-min Rain = 0
KOD1 080910Z 17013KT 08/03 A299 RMK A01 T00800026  RH  069%=      5-min Rain = 0
KOD1 080911Z 17012KT 08/03 A299 RMK A01 T00810027  RH  069%=      5-min Rain = 0
KOD1 080912Z 18013KT 08/03 A2991 RMK A01 T00810026  RH  069%=      5-min Rain = 0
KOD1 080913Z 18012KT 08/03 A2991 RMK A01 T00810026  RH  068%=      5-min Rain = 0
KOD1 080914Z 17012KT 08/03 A2991 RMK A01 T00810026  RH  068%=      5-min Rain = 0
KOD1 080915Z 18011KT 08/03 A2991 RMK A01 T00810027  RH  068%=      5-min Rain = 0
KOD1 080916Z 18011KT 08/03 A2991 RMK A01 T00810026  RH  069%=      5-min Rain = 0
KOD1 080917Z 18010KT 08/03 A2991 RMK A01 T00810026  RH  068%=      5-min Rain = 0
KOD1 080918Z 18012KT 08/03 A2991 RMK A01 T00810026  RH  069%=      5-min Rain = 0
KOD1 080919Z 18011KT 08/03 A2991 RMK A01 T00810026  RH  068%=      5-min Rain = 0
KOD1 080920Z 18011KT 08/03 A2991 RMK A01 T00800026  RH  069%=      5-min Rain = 0
KOD1 080921Z 18012KT 08/03 A2991 RMK A01 T00790026  RH  069%=      5-min Rain = 0
KOD1 080922Z 18012KT 08/03 A2991 RMK A01 T00790026  RH  069%=      5-min Rain = 0
KOD1 080923Z 18010KT 08/03 A2991 RMK A01 T00790026  RH  069%=      5-min Rain = 0
KOD1 080924Z 18011KT 08/03 A2991 RMK A01 T00780026  RH  069%=      5-min Rain = 0
KOD1 080925Z 18010KT 08/03 A2991 RMK A01 T00780026  RH  070%=      5-min Rain = 0
KOD1 080926Z 18009KT 08/03 A2991 RMK A01 T00780026  RH  070%=      5-min Rain = 0
KOD1 080927Z 18011KT 08/03 A2991 RMK A01 T00780026  RH  070%=      5-min Rain = 0
KOD1 080928Z 18010KT 08/03 A2991 RMK A01 T00780026  RH  070%=      5-min Rain = 0
KOD1 080929Z 18010KT 08/03 A2991 RMK A01 T00770026  RH  070%=      5-min Rain = 0
KOD1 080930Z 18009KT 08/03 A2991 RMK A01 T00770026  RH  070%=      5-min Rain = 0
KOD1 080931Z 18010KT 08/03 A2991 RMK A01 T00760026  RH  070%=      5-min Rain = 0
KOD1 080932Z 19010KT 08/03 A2991 RMK A01 T00760026  RH  070%=      5-min Rain = 0
KOD1 080933Z 18011KT 08/03 A2991 RMK A01 T00760026  RH  071%=      5-min Rain = 0
KOD1 080934Z 18011KT 08/03 A2991 RMK A01 T00760026  RH  071%=      5-min Rain = 0
KOD1 080935Z 18011KT 08/03 A2991 RMK A01 T00760026  RH  071%=      5-min Rain = 0
KOD1 080936Z 18011KT 08/03 A2991 RMK A01 T00770026  RH  070%=      5-min Rain = 0
KOD1 080937Z 19011KT 08/03 A2991 RMK A01 T00770026  RH  070%=      5-min Rain = 0
KOD1 080938Z 18010KT 08/03 A2991 RMK A01 T00780027  RH  070%=      5-min Rain = 0
KOD1 080939Z 19010KT 08/03 A2991 RMK A01 T00780027  RH  070%=      5-min Rain = 0
KOD1 080940Z 19008KT 08/03 A2991 RMK A01 T00780027  RH  070%=      5-min Rain = 0
KOD1 080941Z 19009KT 08/03 A2991 RMK A01 T00780027  RH  070%=      5-min Rain = 0
KOD1 080942Z 19009KT 08/03 A2991 RMK A01 T00780027  RH  070%=      5-min Rain = 0
KOD1 080943Z 19009KT 08/03 A2991 RMK A01 T00780026  RH  070%=      5-min Rain = 0
KOD1 080944Z 19009KT 08/03 A2991 RMK A01 T00780027  RH  070%=      5-min Rain = 0
KOD1 080945Z 19009KT 08/03 A2991 RMK A01 T00780027  RH  070%=      5-min Rain = 0
KOD1 080946Z 19008KT 08/03 A2991 RMK A01 T00790027  RH  070%=      5-min Rain = 0
KOD1 080947Z 19009KT 08/03 A2991 RMK A01 T00770026  RH  070%=      5-min Rain = 0
KOD1 080948Z 19009KT 08/03 A2991 RMK A01 T00770027  RH  071%=      5-min Rain = 0
KOD1 080949Z 19009KT 08/03 A2991 RMK A01 T00770027  RH  071%=      5-min Rain = 0
KOD1 080950Z 19008KT 08/03 A2991 RMK A01 T00780027  RH  070%=      5-min Rain = 0
KOD1 080951Z 20009KT 08/03 A2991 RMK A01 T00780027  RH  070%=      5-min Rain = 0
KOD1 080952Z 20008KT 08/03 A2991 RMK A01 T00780027  RH  070%=      5-min Rain = 0
KOD1 080953Z 19008KT 08/03 A2991 RMK A01 T00780027  RH  070%=      5-min Rain = 0
KOD1 080954Z 19008KT 08/03 A2991 RMK A01 T00770027  RH  070%=      5-min Rain = 0
KOD1 080955Z 19008KT 08/03 A2991 RMK A01 T00770027  RH  071%=      5-min Rain = 0
KOD1 080956Z 19008KT 08/03 A299 RMK A01 T00770027  RH  070%=      5-min Rain = 0
KOD1 080957Z 18009KT 08/03 A299 RMK A01 T00770027  RH  071%=      5-min Rain = 0
KOD1 080958Z 18009KT 08/03 A299 RMK A01 T00770027  RH  071%=      5-min Rain = 0
KOD1 080959Z 18009KT 08/03 A299 RMK A01 T00770027  RH  071%=      5-min Rain = 0
KOD1 081000Z 18009KT 08/03 A299 RMK A01 T00770027  RH  071%=      5-min Rain = 0
KOD1 081001Z 18011KT 08/03 A2989 RMK A01 T00760027  RH  071%=      5-min Rain = 0
KOD1 081002Z 18010KT 08/03 A2989 RMK A01 T00770028  RH  071%=      5-min Rain = 0
KOD1 081003Z 18010KT 08/03 A2989 RMK A01 T00760027  RH  071%=      5-min Rain = 0
KOD1 081004Z 18010KT 08/03 A2989 RMK A01 T00750027  RH  072%=      5-min Rain = 0
KOD1 081005Z 18010KT 07/03 A2989 RMK A01 T00740027  RH  072%=      5-min Rain = 0
KOD1 081006Z 18010KT 07/03 A2989 RMK A01 T00730027  RH  072%=      5-min Rain = 0
KOD1 081007Z 18010KT 07/03 A2989 RMK A01 T00730027  RH  073%=      5-min Rain = 0
KOD1 081008Z 18009KT 07/03 A2989 RMK A01 T00730027  RH  073%=      5-min Rain = 0
KOD1 081009Z 17011KT 07/03 A2989 RMK A01 T00720027  RH  073%=      5-min Rain = 0
KOD1 081010Z 18010KT 07/03 A2989 RMK A01 T00720027  RH  073%=      5-min Rain = 0
KOD1 081011Z 17010KT 07/03 A2989 RMK A01 T00720027  RH  073%=      5-min Rain = 0
KOD1 081012Z 17010KT 07/03 A2989 RMK A01 T00730028  RH  073%=      5-min Rain = 0
KOD1 081013Z 17009KT 07/03 A2989 RMK A01 T00730028  RH  073%=      5-min Rain = 0
KOD1 081014Z 18009KT 07/03 A2989 RMK A01 T00730027  RH  073%=      5-min Rain = 0
KOD1 081015Z 18009KT 07/03 A2989 RMK A01 T00720027  RH  073%=      5-min Rain = 0
KOD1 081016Z 18010KT 07/03 A2989 RMK A01 T00720027  RH  073%=      5-min Rain = 0
KOD1 081017Z 17009KT 07/03 A2989 RMK A01 T00720027  RH  073%=      5-min Rain = 0
KOD1 081018Z 17010KT 07/03 A2989 RMK A01 T00710027  RH  074%=      5-min Rain = 0
KOD1 081019Z 17009KT 07/03 A2989 RMK A01 T00710027  RH  074%=      5-min Rain = 0
KOD1 081020Z 17009KT 07/03 A2989 RMK A01 T00700027  RH  074%=      5-min Rain = 0
KOD1 081021Z 17010KT 07/03 A2989 RMK A01 T00700027  RH  074%=      5-min Rain = 0
KOD1 081022Z 17010KT 07/03 A2989 RMK A01 T00700027  RH  074%=      5-min Rain = 0
KOD1 081023Z 17010KT 07/03 A2989 RMK A01 T00700027  RH  074%=      5-min Rain = 0
KOD1 081024Z 17010KT 07/03 A2989 RMK A01 T00700027  RH  074%=      5-min Rain = 0
KOD1 081025Z 17011KT 07/03 A2989 RMK A01 T00700027  RH  074%=      5-min Rain = 0
KOD1 081026Z 18010KT 07/03 A2989 RMK A01 T00700028  RH  074%=      5-min Rain = 0
KOD1 081027Z 17010KT 07/03 A2989 RMK A01 T00710028  RH  074%=      5-min Rain = 0
KOD1 081028Z 17011KT 07/03 A2989 RMK A01 T00710028  RH  074%=      5-min Rain = 0
KOD1 081029Z 17011KT 07/03 A2989 RMK A01 T00710028  RH  074%=      5-min Rain = 0
KOD1 081030Z 17011KT 07/03 A2989 RMK A01 T00710028  RH  074%=      5-min Rain = 0
KOD1 081031Z 17010KT 07/03 A2989 RMK A01 T00710028  RH  074%=      5-min Rain = 0
KOD1 081032Z 17010KT 07/03 A2989 RMK A01 T00710028  RH  074%=      5-min Rain = 0
KOD1 081033Z 18010KT 07/03 A2989 RMK A01 T00710028  RH  074%=      5-min Rain = 0
KOD1 081034Z 18010KT 07/03 A2988 RMK A01 T00710028  RH  074%=      5-min Rain = 0
KOD1 081035Z 18010KT 07/03 A2988 RMK A01 T00710028  RH  074%=      5-min Rain = 0
KOD1 081036Z 17010KT 07/03 A2988 RMK A01 T00710028  RH  074%=      5-min Rain = 0
KOD1 081037Z 18011KT 07/03 A2988 RMK A01 T00700028  RH  075%=      5-min Rain = 0
KOD1 081038Z 18010KT 07/03 A2988 RMK A01 T00700029  RH  075%=      5-min Rain = 0
KOD1 081039Z 17010KT 07/03 A2988 RMK A01 T00700028  RH  075%=      5-min Rain = 0
KOD1 081040Z 18011KT 07/03 A2988 RMK A01 T00700028  RH  075%=      5-min Rain = 0
KOD1 081041Z 17011KT 07/03 A2988 RMK A01 T00700029  RH  075%=      5-min Rain = 0
KOD1 081042Z 17011KT 07/03 A2988 RMK A01 T00700029  RH  075%=      5-min Rain = 0
KOD1 081043Z 17010KT 07/03 A2988 RMK A01 T00700029  RH  075%=      5-min Rain = 0
KOD1 081044Z 17010KT 07/03 A2988 RMK A01 T00710029  RH  075%=      5-min Rain = 0
KOD1 081045Z 17010KT 07/03 A2988 RMK A01 T00710029  RH  075%=      5-min Rain = 0
KOD1 081046Z 18010KT 07/03 A2988 RMK A01 T00700028  RH  075%=      5-min Rain = 0
KOD1 081047Z 18009KT 07/03 A2988 RMK A01 T00700029  RH  075%=      5-min Rain = 0
KOD1 081048Z 18010KT 07/03 A2988 RMK A01 T00700029  RH  075%=      5-min Rain = 0
KOD1 081049Z 17010KT 07/03 A2988 RMK A01 T00700029  RH  075%=      5-min Rain = 0
KOD1 081050Z 17009KT 07/03 A2987 RMK A01 T00700029  RH  075%=      5-min Rain = 0
KOD1 081051Z 17009KT 07/03 A2988 RMK A01 T00700029  RH  075%=      5-min Rain = 0
KOD1 081052Z 18009KT 07/03 A2988 RMK A01 T00700029  RH  075%=      5-min Rain = 0
KOD1 081053Z 18008KT 07/03 A2988 RMK A01 T00700029  RH  075%=      5-min Rain = 0
KOD1 081054Z 18009KT 07/03 A2988 RMK A01 T00700029  RH  075%=      5-min Rain = 0
KOD1 081055Z 18009KT 07/03 A2987 RMK A01 T00700030  RH  075%=      5-min Rain = 0
KOD1 081056Z 18008KT 07/03 A2987 RMK A01 T00700030  RH  075%=      5-min Rain = 0
KOD1 081057Z 17009KT 07/03 A2987 RMK A01 T00710030  RH  075%=      5-min Rain = 0
KOD1 081058Z 18009KT 07/03 A2987 RMK A01 T00710030  RH  075%=      5-min Rain = 0
KOD1 081059Z 18010KT 07/03 A2987 RMK A01 T00710030  RH  075%=      5-min Rain = 0
KOD1 081100Z 18010KT 07/03 A2987 RMK A01 T00710030  RH  075%=      5-min Rain = 0
KOD1 081101Z 18010KT 07/03 A2987 RMK A01 T00720031  RH  075%=      5-min Rain = 0
KOD1 081102Z 17011KT 07/03 A2987 RMK A01 T00720031  RH  075%=      5-min Rain = 0
KOD1 081103Z 17011KT 07/03 A2986 RMK A01 T00740031  RH  075%=      5-min Rain = 0
KOD1 081104Z 17010KT 07/03 A2986 RMK A01 T00730031  RH  074%=      5-min Rain = 0
KOD1 081105Z 17010KT 07/03 A2986 RMK A01 T00730031  RH  075%=      5-min Rain = 0
KOD1 081106Z 17011KT 07/03 A2986 RMK A01 T00740032  RH  075%=      5-min Rain = 0
KOD1 081107Z 17011KT 08/03 A2986 RMK A01 T00750032  RH  074%=      5-min Rain = 0
KOD1 081108Z 17010KT 08/03 A2986 RMK A01 T00760032  RH  074%=      5-min Rain = 0
KOD1 081109Z 18010KT 08/03 A2986 RMK A01 T00760032  RH  074%=      5-min Rain = 0
KOD1 081110Z 18011KT 08/03 A2986 RMK A01 T00760032  RH  074%=      5-min Rain = 0
KOD1 081111Z 18010KT 08/03 A2986 RMK A01 T00760032  RH  074%=      5-min Rain = 0
KOD1 081112Z 18011KT 08/03 A2986 RMK A01 T00760032  RH  074%=      5-min Rain = 0
KOD1 081113Z 18010KT 08/03 A2986 RMK A01 T00760032  RH  074%=      5-min Rain = 0
KOD1 081114Z 18011KT 08/03 A2987 RMK A01 T00760032  RH  074%=      5-min Rain = 0
KOD1 081115Z 18011KT 08/03 A2987 RMK A01 T00760033  RH  074%=      5-min Rain = 0
KOD1 081116Z 18011KT 08/03 A2987 RMK A01 T00760032  RH  074%=      5-min Rain = 0
KOD1 081117Z 18010KT 08/03 A2987 RMK A01 T00780033  RH  073%=      5-min Rain = 0
KOD1 081118Z 18011KT 08/03 A2987 RMK A01 T00780033  RH  073%=      5-min Rain = 0
KOD1 081119Z 18011KT 08/03 A2987 RMK A01 T00790033  RH  073%=      5-min Rain = 0
KOD1 081120Z 18010KT 08/03 A2987 RMK A01 T00790032  RH  072%=      5-min Rain = 0
KOD1 081121Z 18010KT 08/03 A2987 RMK A01 T00780032  RH  073%=      5-min Rain = 0
KOD1 081122Z 18010KT 08/03 A2987 RMK A01 T00770032  RH  073%=      5-min Rain = 0
KOD1 081123Z 17010KT 08/03 A2986 RMK A01 T00770032  RH  073%=      5-min Rain = 0
KOD1 081124Z 18010KT 08/03 A2986 RMK A01 T00760032  RH  074%=      5-min Rain = 0
KOD1 081125Z 18010KT 08/03 A2986 RMK A01 T00750032  RH  074%=      5-min Rain = 0
KOD1 081126Z 18010KT 08/03 A2986 RMK A01 T00750033  RH  074%=      5-min Rain = 0
KOD1 081127Z 17010KT 08/03 A2986 RMK A01 T00760033  RH  074%=      5-min Rain = 0
KOD1 081128Z 18010KT 08/03 A2986 RMK A01 T00760032  RH  074%=      5-min Rain = 0
KOD1 081129Z 18009KT 08/03 A2986 RMK A01 T00750032  RH  074%=      5-min Rain = 0
KOD1 081130Z 18009KT 08/03 A2986 RMK A01 T00750032  RH  074%=      5-min Rain = 0
KOD1 081131Z 18011KT 07/03 A2986 RMK A01 T00740033  RH  075%=      5-min Rain = 0
KOD1 081132Z 18011KT 08/03 A2986 RMK A01 T00750033  RH  075%=      5-min Rain = 0
KOD1 081133Z 18010KT 08/03 A2986 RMK A01 T00760033  RH  074%=      5-min Rain = 0
KOD1 081134Z 18011KT 08/03 A2986 RMK A01 T00760032  RH  074%=      5-min Rain = 0
KOD1 081135Z 18010KT 08/03 A2986 RMK A01 T00760032  RH  074%=      5-min Rain = 0
KOD1 081136Z 17011KT 08/03 A2986 RMK A01 T00750032  RH  074%=      5-min Rain = 0
KOD1 081137Z 17010KT 08/03 A2986 RMK A01 T00750033  RH  074%=      5-min Rain = 0
KOD1 081138Z 17010KT 08/03 A2986 RMK A01 T00750032  RH  074%=      5-min Rain = 0
KOD1 081139Z 17010KT 08/03 A2985 RMK A01 T00750032  RH  074%=      5-min Rain = 0
KOD1 081140Z 17011KT 07/03 A2985 RMK A01 T00740032  RH  075%=      5-min Rain = 0
KOD1 081141Z 18010KT 07/03 A2985 RMK A01 T00740033  RH  075%=      5-min Rain = 0
KOD1 081142Z 18010KT 08/03 A2985 RMK A01 T00750033  RH  075%=      5-min Rain = 0
KOD1 081143Z 18010KT 08/03 A2985 RMK A01 T00750033  RH  075%=      5-min Rain = 0
KOD1 081144Z 17009KT 08/03 A2985 RMK A01 T00750033  RH  075%=      5-min Rain = 0
KOD1 081145Z 18010KT 08/03 A2985 RMK A01 T00750033  RH  075%=      5-min Rain = 0
KOD1 081146Z 18009KT 08/03 A2985 RMK A01 T00750033  RH  075%=      5-min Rain = 0
KOD1 081147Z 18010KT 08/03 A2985 RMK A01 T00750033  RH  075%=      5-min Rain = 0
KOD1 081148Z 18009KT 08/03 A2985 RMK A01 T00760034  RH  075%=      5-min Rain = 0
KOD1 081149Z 18010KT 08/03 A2985 RMK A01 T00760033  RH  074%=      5-min Rain = 0
KOD1 081150Z 18008KT 08/03 A2985 RMK A01 T00750033  RH  074%=      5-min Rain = 0
KOD1 081151Z 19010KT 08/03 A2986 RMK A01 T00750033  RH  075%=      5-min Rain = 0
KOD1 081152Z 19009KT 08/03 A2986 RMK A01 T00760034  RH  075%=      5-min Rain = 0
KOD1 081153Z 19010KT 08/03 A2986 RMK A01 T00770034  RH  074%=      5-min Rain = 0
KOD1 081154Z 19010KT 08/03 A2986 RMK A01 T00790034  RH  073%=      5-min Rain = 0
KOD1 081155Z 19009KT 08/03 A2986 RMK A01 T00790034  RH  073%=      5-min Rain = 0
KOD1 081156Z 19008KT 08/03 A2986 RMK A01 T00790034  RH  073%=      5-min Rain = 0
KOD1 081157Z 18008KT 08/03 A2985 RMK A01 T00780034  RH  074%=      5-min Rain = 0
KOD1 081158Z 18008KT 08/03 A2985 RMK A01 T00780034  RH  074%=      5-min Rain = 0
KOD1 081159Z 19009KT 08/04 A2985 RMK A01 T00780035  RH  074%=      5-min Rain = 0
KOD1 081200Z 18009KT 08/04 A2985 RMK A01 T00790035  RH  074%=      5-min Rain = 0
KOD1 081201Z 18009KT 08/04 A2985 RMK A01 T00790035  RH  073%=      5-min Rain = 0
KOD1 081202Z 18009KT 08/04 A2985 RMK A01 T00800035  RH  073%=      5-min Rain = 0
KOD1 081203Z 18009KT 08/04 A2985 RMK A01 T00790035  RH  073%=      5-min Rain = 0
KOD1 081204Z 19010KT 08/04 A2985 RMK A01 T00800036  RH  073%=      5-min Rain = 0
KOD1 081205Z 19011KT 08/04 A2985 RMK A01 T00810036  RH  073%=      5-min Rain = 0
KOD1 081206Z 19010KT 08/04 A2985 RMK A01 T00820036  RH  073%=      5-min Rain = 0
KOD1 081207Z 18011KT 08/04 A2984 RMK A01 T00830036  RH  072%=      5-min Rain = 0
KOD1 081208Z 19010KT 08/04 A2984 RMK A01 T00830036  RH  072%=      5-min Rain = 0
KOD1 081209Z 18011KT 08/04 A2984 RMK A01 T00830036  RH  072%=      5-min Rain = 0
KOD1 081210Z 18010KT 08/04 A2984 RMK A01 T00820036  RH  072%=      5-min Rain = 0
KOD1 081211Z 18011KT 08/04 A2984 RMK A01 T00820036  RH  073%=      5-min Rain = 0
KOD1 081212Z 19011KT 08/04 A2984 RMK A01 T00810036  RH  073%=      5-min Rain = 0
KOD1 081213Z 19011KT 08/04 A2984 RMK A01 T00820036  RH  073%=      5-min Rain = 0
KOD1 081214Z 18010KT 08/04 A2984 RMK A01 T00820036  RH  073%=      5-min Rain = 0
KOD1 081215Z 18010KT 08/04 A2984 RMK A01 T00820036  RH  073%=      5-min Rain = 0
KOD1 081216Z 18010KT 08/04 A2984 RMK A01 T00820036  RH  073%=      5-min Rain = 0
KOD1 081217Z 18009KT 08/04 A2984 RMK A01 T00820036  RH  073%=      5-min Rain = 0
KOD1 081218Z 18009KT 08/04 A2984 RMK A01 T00810036  RH  073%=      5-min Rain = 0
KOD1 081219Z 18009KT 08/04 A2984 RMK A01 T00810036  RH  073%=      5-min Rain = 0
KOD1 081220Z 18009KT 08/04 A2984 RMK A01 T00800036  RH  074%=      5-min Rain = 0
KOD1 081221Z 18009KT 08/04 A2984 RMK A01 T00800037  RH  074%=      5-min Rain = 0
KOD1 081222Z 18009KT 08/04 A2984 RMK A01 T00800036  RH  074%=      5-min Rain = 0
KOD1 081223Z 18009KT 08/04 A2984 RMK A01 T00800037  RH  074%=      5-min Rain = 0
KOD1 081224Z 18008KT 08/04 A2984 RMK A01 T00800037  RH  074%=      5-min Rain = 0
KOD1 081225Z 19009KT 08/04 A2984 RMK A01 T00810037  RH  074%=      5-min Rain = 0
KOD1 081226Z 19009KT 08/04 A2984 RMK A01 T00810037  RH  074%=      5-min Rain = 0
KOD1 081227Z 19010KT 08/04 A2984 RMK A01 T00830038  RH  073%=      5-min Rain = 0
KOD1 081228Z 19010KT 08/04 A2984 RMK A01 T00830037  RH  073%=      5-min Rain = 0
KOD1 081229Z 19009KT 08/04 A2985 RMK A01 T00830037  RH  073%=      5-min Rain = 0
KOD1 081230Z 19010KT 08/04 A2985 RMK A01 T00830037  RH  073%=      5-min Rain = 0
KOD1 081231Z 19009KT 08/04 A2985 RMK A01 T00830038  RH  073%=      5-min Rain = 0
KOD1 081232Z 19009KT 08/04 A2985 RMK A01 T00840038  RH  073%=      5-min Rain = 0
KOD1 081233Z 19009KT 08/04 A2985 RMK A01 T00830038  RH  073%=      5-min Rain = 0
KOD1 081234Z 19010KT 08/04 A2984 RMK A01 T00830038  RH  073%=      5-min Rain = 0
KOD1 081235Z 19009KT 08/04 A2984 RMK A01 T00830038  RH  073%=      5-min Rain = 0
KOD1 081236Z 19009KT 08/04 A2984 RMK A01 T00830037  RH  073%=      5-min Rain = 0
KOD1 081237Z 18009KT 08/04 A2984 RMK A01 T00830038  RH  073%=      5-min Rain = 0
KOD1 081238Z 19010KT 08/04 A2984 RMK A01 T00830038  RH  073%=      5-min Rain = 0
KOD1 081239Z 18010KT 08/04 A2984 RMK A01 T00830038  RH  073%=      5-min Rain = 0
KOD1 081240Z 18009KT 08/04 A2984 RMK A01 T00830038  RH  073%=      5-min Rain = 0
KOD1 081241Z 18009KT 08/04 A2984 RMK A01 T00830038  RH  073%=      5-min Rain = 0
KOD1 081242Z 19008KT 08/04 A2984 RMK A01 T00830038  RH  073%=      5-min Rain = 0
KOD1 081243Z 18008KT 08/04 A2984 RMK A01 T00830038  RH  073%=      5-min Rain = 0
KOD1 081244Z 18008KT 08/04 A2984 RMK A01 T00820038  RH  074%=      5-min Rain = 0
KOD1 081245Z 17007KT 08/04 A2984 RMK A01 T00810037  RH  074%=      5-min Rain = 0
KOD1 081246Z 17006KT 08/04 A2984 RMK A01 T00800037  RH  074%=      5-min Rain = 0
KOD1 081247Z 18007KT 08/04 A2984 RMK A01 T00790037  RH  075%=      5-min Rain = 0
KOD1 081248Z 17007KT 08/04 A2984 RMK A01 T00780037  RH  075%=      5-min Rain = 0
KOD1 081249Z 17006KT 08/04 A2984 RMK A01 T00780037  RH  075%=      5-min Rain = 0
KOD1 081250Z 18006KT 08/04 A2984 RMK A01 T00780037  RH  075%=      5-min Rain = 0
KOD1 081251Z 17006KT 08/04 A2984 RMK A01 T00770037  RH  076%=      5-min Rain = 0
KOD1 081252Z 18005KT 08/04 A2984 RMK A01 T00770037  RH  076%=      5-min Rain = 0
KOD1 081253Z 18006KT 08/04 A2984 RMK A01 T00770037  RH  076%=      5-min Rain = 0
KOD1 081254Z 19006KT 08/04 A2985 RMK A01 T00770038  RH  076%=      5-min Rain = 0
KOD1 081255Z 19005KT 08/04 A2985 RMK A01 T00770038  RH  076%=      5-min Rain = 0
KOD1 081256Z 20005KT 08/04 A2985 RMK A01 T00770037  RH  076%=      5-min Rain = 0
KOD1 081257Z 20005KT 08/04 A2985 RMK A01 T00770038  RH  076%=      5-min Rain = 0
KOD1 081258Z 20005KT 08/04 A2985 RMK A01 T00770038  RH  076%=      5-min Rain = 0
KOD1 081259Z 20006KT 08/04 A2985 RMK A01 T00770038  RH  076%=      5-min Rain = 0
KOD1 081300Z 20006KT 08/04 A2985 RMK A01 T00780039  RH  076%=      5-min Rain = 0
KOD1 081301Z 20007KT 08/04 A2984 RMK A01 T00790038  RH  075%=      5-min Rain = 0
KOD1 081302Z 20008KT 08/04 A2984 RMK A01 T00800039  RH  075%=      5-min Rain = 0
KOD1 081303Z 20009KT 08/04 A2984 RMK A01 T00810039  RH  075%=      5-min Rain = 0
KOD1 081304Z 20009KT 08/04 A2984 RMK A01 T00830040  RH  074%=      5-min Rain = 0
KOD1 081305Z 20009KT 08/04 A2984 RMK A01 T00840039  RH  073%=      5-min Rain = 0
KOD1 081306Z 20009KT 09/04 A2984 RMK A01 T00850039  RH  073%=      5-min Rain = 0
KOD1 081307Z 20009KT 09/04 A2984 RMK A01 T00850039  RH  073%=      5-min Rain = 0
KOD1 081308Z 20010KT 09/04 A2984 RMK A01 T00860040  RH  073%=      5-min Rain = 0
KOD1 081309Z 20010KT 09/04 A2984 RMK A01 T00870040  RH  072%=      5-min Rain = 0
KOD1 081310Z 20011KT 09/04 A2984 RMK A01 T00870040  RH  072%=      5-min Rain = 0
KOD1 081311Z 20010KT 09/04 A2984 RMK A01 T00870039  RH  072%=      5-min Rain = 0
KOD1 081312Z 20011KT 09/04 A2984 RMK A01 T00870039  RH  072%=      5-min Rain = 0
KOD1 081313Z 20011KT 09/04 A2984 RMK A01 T00880040  RH  072%=      5-min Rain = 0
KOD1 081314Z 20011KT 09/04 A2984 RMK A01 T00880040  RH  072%=      5-min Rain = 0
KOD1 081315Z 20011KT 09/04 A2984 RMK A01 T00880040  RH  072%=      5-min Rain = 0
KOD1 081316Z 20011KT 09/04 A2984 RMK A01 T00870040  RH  072%=      5-min Rain = 0
KOD1 081317Z 20011KT 09/04 A2984 RMK A01 T00870040  RH  072%=      5-min Rain = 0
KOD1 081318Z 20011KT 09/04 A2984 RMK A01 T00870040  RH  072%=      5-min Rain = 0
KOD1 081319Z 20012KT 09/04 A2984 RMK A01 T00870040  RH  072%=      5-min Rain = 0
KOD1 081320Z 20012KT 09/04 A2984 RMK A01 T00870040  RH  072%=      5-min Rain = 0
KOD1 081321Z 20011KT 09/04 A2984 RMK A01 T00870040  RH  072%=      5-min Rain = 0
KOD1 081322Z 20012KT 09/04 A2984 RMK A01 T00870040  RH  072%=      5-min Rain = 0
KOD1 081323Z 20011KT 09/04 A2984 RMK A01 T00870040  RH  072%=      5-min Rain = 0
KOD1 081324Z 20012KT 09/04 A2985 RMK A01 T00870040  RH  072%=      5-min Rain = 0
KOD1 081325Z 20012KT 09/04 A2985 RMK A01 T00880040  RH  072%=      5-min Rain = 0
KOD1 081326Z 20011KT 09/04 A2985 RMK A01 T00880040  RH  072%=      5-min Rain = 0
KOD1 081327Z 20010KT 09/04 A2985 RMK A01 T00880040  RH  072%=      5-min Rain = 0
KOD1 081328Z 20010KT 09/04 A2984 RMK A01 T00870040  RH  072%=      5-min Rain = 0
KOD1 081329Z 20010KT 09/04 A2985 RMK A01 T00870040  RH  072%=      5-min Rain = 0
KOD1 081330Z 20010KT 09/04 A2984 RMK A01 T00880040  RH  072%=      5-min Rain = 0
KOD1 081331Z 20010KT 09/04 A2984 RMK A01 T00890041  RH  072%=      5-min Rain = 0
KOD1 081332Z 20010KT 09/04 A2984 RMK A01 T00890041  RH  072%=      5-min Rain = 0
KOD1 081333Z 20009KT 09/04 A2984 RMK A01 T00900041  RH  071%=      5-min Rain = 0
KOD1 081334Z 20009KT 09/04 A2984 RMK A01 T00900041  RH  071%=      5-min Rain = 0
KOD1 081335Z 20009KT 09/04 A2984 RMK A01 T00900040  RH  071%=      5-min Rain = 0
KOD1 081336Z 19008KT 09/04 A2984 RMK A01 T00900041  RH  071%=      5-min Rain = 0
KOD1 081337Z 19009KT 09/04 A2984 RMK A01 T00890041  RH  072%=      5-min Rain = 0
KOD1 081338Z 19009KT 09/04 A2984 RMK A01 T00900041  RH  071%=      5-min Rain = 0
KOD1 081339Z 19009KT 09/04 A2984 RMK A01 T00890040  RH  071%=      5-min Rain = 0
KOD1 081340Z 19009KT 09/04 A2984 RMK A01 T00890041  RH  072%=      5-min Rain = 0
KOD1 081341Z 19009KT 09/04 A2984 RMK A01 T00890041  RH  072%=      5-min Rain = 0
KOD1 081342Z 19010KT 09/04 A2983 RMK A01 T00890041  RH  072%=      5-min Rain = 0
KOD1 081343Z 19009KT 09/04 A2983 RMK A01 T00910041  RH  071%=      5-min Rain = 0
KOD1 081344Z 19010KT 09/04 A2984 RMK A01 T00910041  RH  071%=      5-min Rain = 0
KOD1 081345Z 19010KT 09/04 A2984 RMK A01 T00910041  RH  071%=      5-min Rain = 0
KOD1 081346Z 20009KT 09/04 A2984 RMK A01 T00910041  RH  071%=      5-min Rain = 0
KOD1 081347Z 20009KT 09/04 A2984 RMK A01 T00910041  RH  071%=      5-min Rain = 0
KOD1 081348Z 20010KT 09/04 A2984 RMK A01 T00910041  RH  071%=      5-min Rain = 0
KOD1 081349Z 19010KT 09/04 A2984 RMK A01 T00910041  RH  071%=      5-min Rain = 0
KOD1 081350Z 20010KT 09/04 A2984 RMK A01 T00910041  RH  071%=      5-min Rain = 0
KOD1 081351Z 19010KT 09/04 A2984 RMK A01 T00920042  RH  071%=      5-min Rain = 0
KOD1 081352Z 20010KT 09/04 A2983 RMK A01 T00920042  RH  071%=      5-min Rain = 0
KOD1 081353Z 20010KT 09/04 A2983 RMK A01 T00930042  RH  070%=      5-min Rain = 0
KOD1 081354Z 20010KT 09/04 A2983 RMK A01 T00930042  RH  070%=      5-min Rain = 0
KOD1 081355Z 20010KT 09/04 A2983 RMK A01 T00930042  RH  070%=      5-min Rain = 0
KOD1 081356Z 20011KT 09/04 A2983 RMK A01 T00930042  RH  070%=      5-min Rain = 0
KOD1 081357Z 20010KT 09/04 A2983 RMK A01 T00940042  RH  070%=      5-min Rain = 0
KOD1 081358Z 20011KT 10/04 A2983 RMK A01 T00950042  RH  070%=      5-min Rain = 0
KOD1 081359Z 20011KT 10/04 A2983 RMK A01 T00950042  RH  070%=      5-min Rain = 0
KOD1 081400Z 20012KT 10/04 A2983 RMK A01 T00950043  RH  070%=      5-min Rain = 0
KOD1 081401Z 20011KT 10/04 A2983 RMK A01 T00950043  RH  070%=      5-min Rain = 0
KOD1 081402Z 20012KT 10/04 A2983 RMK A01 T00950043  RH  070%=      5-min Rain = 0
KOD1 081403Z 20012KT 10/04 A2983 RMK A01 T00950043  RH  070%=      5-min Rain = 0
KOD1 081404Z 20011KT 10/04 A2983 RMK A01 T00950042  RH  070%=      5-min Rain = 0
KOD1 081405Z 20011KT 10/04 A2983 RMK A01 T00950043  RH  070%=      5-min Rain = 0
KOD1 081406Z 20012KT 10/04 A2983 RMK A01 T00950043  RH  070%=      5-min Rain = 0
KOD1 081407Z 20011KT 10/04 A2983 RMK A01 T00950043  RH  070%=      5-min Rain = 0
KOD1 081408Z 20011KT 10/04 A2983 RMK A01 T00960043  RH  070%=      5-min Rain = 0
KOD1 081409Z 20012KT 10/04 A2983 RMK A01 T00960043  RH  070%=      5-min Rain = 0
KOD1 081410Z 20011KT 10/04 A2983 RMK A01 T00980044  RH  069%=      5-min Rain = 0
KOD1 081411Z 20011KT 10/04 A2983 RMK A01 T00980044  RH  069%=      5-min Rain = 0
KOD1 081412Z 20011KT 10/04 A2983 RMK A01 T00990044  RH  069%=      5-min Rain = 0
KOD1 081413Z 20012KT 10/04 A2983 RMK A01 T01000044  RH  068%=      5-min Rain = 0
KOD1 081414Z 20013KT 10/05 A2983 RMK A01 T01010045  RH  068%=      5-min Rain = 0
KOD1 081415Z 20013KT 10/05 A2983 RMK A01 T01020045  RH  068%=      5-min Rain = 0
KOD1 081416Z 20012KT 10/05 A2983 RMK A01 T01030045  RH  067%=      5-min Rain = 0
KOD1 081417Z 19012KT 10/05 A2983 RMK A01 T01030045  RH  067%=      5-min Rain = 0
KOD1 081418Z 19012KT 10/05 A2983 RMK A01 T01030045  RH  067%=      5-min Rain = 0
KOD1 081419Z 19013KT 10/05 A2983 RMK A01 T01030046  RH  067%=      5-min Rain = 0
KOD1 081420Z 19013KT 10/05 A2983 RMK A01 T01040046  RH  067%=      5-min Rain = 0
KOD1 081421Z 19012KT 10/05 A2983 RMK A01 T01040046  RH  067%=      5-min Rain = 0
KOD1 081422Z 19012KT 11/05 A2982 RMK A01 T01050046  RH  067%=      5-min Rain = 0
KOD1 081423Z 19012KT 11/05 A2982 RMK A01 T01050046  RH  067%=      5-min Rain = 0
KOD1 081424Z 19011KT 11/05 A2982 RMK A01 T01050046  RH  067%=      5-min Rain = 0
KOD1 081425Z 19012KT 11/05 A2983 RMK A01 T01050047  RH  067%=      5-min Rain = 0
KOD1 081426Z 19011KT 11/05 A2983 RMK A01 T01070047  RH  067%=      5-min Rain = 0
KOD1 081427Z 20011KT 11/05 A2983 RMK A01 T01080047  RH  066%=      5-min Rain = 0
KOD1 081428Z 20011KT 11/05 A2983 RMK A01 T01080047  RH  066%=      5-min Rain = 0
KOD1 081429Z 20011KT 11/05 A2983 RMK A01 T01090048  RH  066%=      5-min Rain = 0
KOD1 081430Z 20011KT 11/05 A2983 RMK A01 T01100048  RH  066%=      5-min Rain = 0
KOD1 081431Z 20010KT 11/05 A2983 RMK A01 T01110048  RH  065%=      5-min Rain = 0
KOD1 081432Z 20011KT 11/05 A2983 RMK A01 T01120049  RH  065%=      5-min Rain = 0
KOD1 081433Z 20011KT 11/05 A2983 RMK A01 T01130049  RH  065%=      5-min Rain = 0
KOD1 081434Z 20010KT 11/05 A2983 RMK A01 T01130049  RH  065%=      5-min Rain = 0
KOD1 081435Z 20010KT 11/05 A2983 RMK A01 T01140049  RH  064%=      5-min Rain = 0
KOD1 081436Z 20011KT 11/05 A2983 RMK A01 T01140049  RH  064%=      5-min Rain = 0
KOD1 081437Z 20010KT 11/05 A2983 RMK A01 T01140049  RH  064%=      5-min Rain = 0
KOD1 081438Z 20010KT 11/05 A2983 RMK A01 T01140049  RH  064%=      5-min Rain = 0
KOD1 081439Z 20010KT 12/05 A2983 RMK A01 T01150049  RH  064%=      5-min Rain = 0
KOD1 081440Z 20011KT 12/05 A2983 RMK A01 T01150049  RH  064%=      5-min Rain = 0
KOD1 081441Z 20011KT 12/05 A2983 RMK A01 T01160049  RH  064%=      5-min Rain = 0
KOD1 081442Z 20011KT 12/05 A2983 RMK A01 T01150049  RH  064%=      5-min Rain = 0
KOD1 081443Z 20010KT 12/05 A2983 RMK A01 T01150049  RH  064%=      5-min Rain = 0
KOD1 081444Z 21011KT 12/05 A2983 RMK A01 T01160050  RH  064%=      5-min Rain = 0
KOD1 081445Z 20011KT 12/05 A2983 RMK A01 T01160050  RH  064%=      5-min Rain = 0
KOD1 081446Z 21013KT 12/05 A2983 RMK A01 T01160050  RH  064%=      5-min Rain = 0
KOD1 081447Z 20011KT 12/05 A2983 RMK A01 T01170050  RH  063%=      5-min Rain = 0
KOD1 081448Z 20013KT 12/05 A2983 RMK A01 T01180050  RH  063%=      5-min Rain = 0
KOD1 081449Z 20013KT 12/05 A2983 RMK A01 T01180050  RH  063%=      5-min Rain = 0
KOD1 081450Z 20012KT 12/05 A2983 RMK A01 T01180050  RH  063%=      5-min Rain = 0
KOD1 081451Z 20013KT 12/05 A2983 RMK A01 T01180050  RH  063%=      5-min Rain = 0
KOD1 081452Z 20013KT 12/05 A2983 RMK A01 T01190050  RH  063%=      5-min Rain = 0
KOD1 081453Z 20013KT 12/05 A2983 RMK A01 T01190050  RH  063%=      5-min Rain = 0
KOD1 081454Z 20014KT 12/05 A2983 RMK A01 T01180050  RH  063%=      5-min Rain = 0
KOD1 081455Z 20012KT 12/05 A2983 RMK A01 T01180050  RH  063%=      5-min Rain = 0
KOD1 081456Z 20014KT 12/05 A2983 RMK A01 T01180050  RH  063%=      5-min Rain = 0
KOD1 081457Z 20013KT 12/05 A2983 RMK A01 T01180050  RH  063%=      5-min Rain = 0
KOD1 081458Z 20012KT 12/05 A2983 RMK A01 T01180050  RH  063%=      5-min Rain = 0
KOD1 081459Z 20013KT 12/05 A2983 RMK A01 T01170050  RH  063%=      5-min Rain = 0
KOD1 081500Z 20013KT 12/05 A2983 RMK A01 T01170050  RH  063%=      5-min Rain = 0
KOD1 081501Z 20013KT 12/05 A2983 RMK A01 T01170050  RH  064%=      5-min Rain = 0
KOD1 081502Z 20014KT 12/05 A2982 RMK A01 T01170050  RH  063%=      5-min Rain = 0
KOD1 081503Z 20013KT 12/05 A2983 RMK A01 T01170050  RH  064%=      5-min Rain = 0
KOD1 081504Z 20013KT 12/05 A2983 RMK A01 T01180051  RH  064%=      5-min Rain = 0
KOD1 081505Z 21014KT 12/05 A2982 RMK A01 T01180050  RH  063%=      5-min Rain = 0
KOD1 081506Z 20014KT 12/05 A2982 RMK A01 T01180050  RH  063%=      5-min Rain = 0
KOD1 081507Z 20013KT 12/05 A2982 RMK A01 T01190051  RH  063%=      5-min Rain = 0
KOD1 081508Z 20014KT 12/05 A2982 RMK A01 T01190051  RH  063%=      5-min Rain = 0
KOD1 081509Z 21016KT 12/05 A2983 RMK A01 T01200051  RH  063%=      5-min Rain = 0
KOD1 081510Z 20014KT 12/05 A2983 RMK A01 T01200052  RH  063%=      5-min Rain = 0
KOD1 081511Z 20015KT 12/05 A2982 RMK A01 T01210051  RH  062%=      5-min Rain = 0
KOD1 081512Z 20015KT 12/05 A2982 RMK A01 T01220052  RH  062%=      5-min Rain = 0
KOD1 081513Z 20015KT 12/05 A2982 RMK A01 T01230052  RH  062%=      5-min Rain = 0
KOD1 081514Z 21014KT 12/05 A2982 RMK A01 T01240053  RH  062%=      5-min Rain = 0
KOD1 081515Z 20013KT 13/06 A2983 RMK A01 T01260055  RH  062%=      5-min Rain = 0
KOD1 081516Z 20015KT 13/05 A2983 RMK A01 T01270054  RH  061%=      5-min Rain = 0
KOD1 081517Z 21015KT 13/05 A2983 RMK A01 T01280054  RH  061%=      5-min Rain = 0
KOD1 081518Z 20012KT 13/06 A2983 RMK A01 T01290055  RH  061%=      5-min Rain = 0
KOD1 081519Z 21013KT 13/06 A2983 RMK A01 T01300056  RH  060%=      5-min Rain = 0
KOD1 081520Z 21012KT 13/06 A2983 RMK A01 T01310056  RH  060%=      5-min Rain = 0
KOD1 081521Z 20015KT 13/06 A2983 RMK A01 T01330056  RH  060%=      5-min Rain = 0
KOD1 081522Z 21016KT 13/06 A2982 RMK A01 T01340055  RH  059%=      5-min Rain = 0
KOD1 081523Z 21015KT 13/06 A2982 RMK A01 T01330055  RH  059%=      5-min Rain = 0
KOD1 081524Z 21016KT 13/06 A2983 RMK A01 T01330055  RH  059%=      5-min Rain = 0
KOD1 081525Z 20014KT 14/06 A2982 RMK A01 T01350056  RH  059%=      5-min Rain = 0
KOD1 081526Z 20014KT 14/06 A2982 RMK A01 T01360055  RH  058%=      5-min Rain = 0
KOD1 081527Z 21015KT 14/05 A2982 RMK A01 T01350054  RH  058%=      5-min Rain = 0
KOD1 081528Z 20012KT 14/06 A2982 RMK A01 T01350055  RH  059%=      5-min Rain = 0
KOD1 081529Z 20014KT 14/06 A2982 RMK A01 T01350055  RH  059%=      5-min Rain = 0
KOD1 081530Z 21013KT 14/06 A2982 RMK A01 T01350055  RH  058%=      5-min Rain = 0
KOD1 081531Z 21013KT 14/06 A2982 RMK A01 T01360055  RH  058%=      5-min Rain = 0
KOD1 081532Z 20013KT 14/06 A2983 RMK A01 T01370055  RH  058%=      5-min Rain = 0
KOD1 081533Z 21012KT 14/06 A2983 RMK A01 T01380056  RH  058%=      5-min Rain = 0
KOD1 081534Z 20015KT 14/06 A2982 RMK A01 T01390056  RH  057%=      5-min Rain = 0
KOD1 081535Z 20014KT 14/05 A2982 RMK A01 T01380054  RH  057%=      5-min Rain = 0
KOD1 081536Z 21012KT 14/05 A2982 RMK A01 T01370054  RH  057%=      5-min Rain = 0
KOD1 081537Z 21015KT 14/05 A2982 RMK A01 T01380054  RH  057%=      5-min Rain = 0
KOD1 081538Z 20015KT 14/05 A2982 RMK A01 T01370054  RH  057%=      5-min Rain = 0
KOD1 081539Z 21015KT 14/05 A2982 RMK A01 T01370054  RH  057%=      5-min Rain = 0
KOD1 081540Z 20013KT 14/05 A2982 RMK A01 T01360054  RH  058%=      5-min Rain = 0
KOD1 081541Z 20014KT 14/06 A2982 RMK A01 T01370055  RH  058%=      5-min Rain = 0
KOD1 081542Z 20015KT 14/05 A2982 RMK A01 T01370054  RH  057%=      5-min Rain = 0
KOD1 081543Z 20015KT 14/05 A2982 RMK A01 T01370054  RH  057%=      5-min Rain = 0
KOD1 081544Z 21014KT 14/05 A2982 RMK A01 T01370054  RH  057%=      5-min Rain = 0
KOD1 081545Z 20013KT 14/05 A2982 RMK A01 T01370054  RH  057%=      5-min Rain = 0
KOD1 081546Z 20013KT 14/06 A2982 RMK A01 T01380055  RH  057%=      5-min Rain = 0
KOD1 081547Z 20013KT 14/06 A2982 RMK A01 T01380055  RH  057%=      5-min Rain = 0
KOD1 081548Z 20011KT 14/06 A2982 RMK A01 T01370055  RH  058%=      5-min Rain = 0
KOD1 081549Z 20013KT 14/06 A2982 RMK A01 T01370055  RH  058%=      5-min Rain = 0
KOD1 081550Z 20014KT 14/05 A2982 RMK A01 T01360054  RH  058%=      5-min Rain = 0
KOD1 081551Z 19014KT 14/05 A2982 RMK A01 T01350054  RH  058%=      5-min Rain = 0
KOD1 081552Z 20014KT 14/05 A2982 RMK A01 T01350054  RH  058%=      5-min Rain = 0
KOD1 081553Z 19012KT 14/06 A2982 RMK A01 T01360055  RH  058%=      5-min Rain = 0
KOD1 081554Z 20014KT 14/06 A2982 RMK A01 T01370055  RH  058%=      5-min Rain = 0
KOD1 081555Z 20014KT 14/06 A2982 RMK A01 T01370055  RH  057%=      5-min Rain = 0
KOD1 081556Z 20013KT 14/06 A2982 RMK A01 T01370055  RH  057%=      5-min Rain = 0
KOD1 081557Z 20013KT 14/06 A2982 RMK A01 T01400057  RH  057%=      5-min Rain = 0
KOD1 081558Z 20014KT 14/06 A2982 RMK A01 T01410056  RH  056%=      5-min Rain = 0
KOD1 081559Z 20015KT 14/06 A2982 RMK A01 T01400055  RH  056%=      5-min Rain = 0
KOD1 081600Z 19015KT 14/06 A2982 RMK A01 T01400056  RH  057%=      5-min Rain = 0
KOD1 081601Z 19015KT 14/06 A2982 RMK A01 T01410056  RH  056%=      5-min Rain = 0
KOD1 081602Z 19013KT 14/06 A2982 RMK A01 T01420056  RH  056%=      5-min Rain = 0
KOD1 081603Z 20013KT 14/06 A2982 RMK A01 T01430056  RH  056%=      5-min Rain = 0
KOD1 081604Z 20015KT 14/06 A2982 RMK A01 T01440055  RH  055%=      5-min Rain = 0
KOD1 081605Z 19014KT 14/06 A2982 RMK A01 T01440056  RH  055%=      5-min Rain = 0
KOD1 081606Z 20014KT 14/06 A2982 RMK A01 T01440056  RH  055%=      5-min Rain = 0
KOD1 081607Z 19013KT 14/06 A2982 RMK A01 T01440056  RH  056%=      5-min Rain = 0
KOD1 081608Z 19015KT 14/06 A2982 RMK A01 T01440056  RH  055%=      5-min Rain = 0
KOD1 081609Z 20014KT 14/06 A2982 RMK A01 T01440056  RH  056%=      5-min Rain = 0
KOD1 081610Z 20014KT 14/06 A2982 RMK A01 T01440056  RH  055%=      5-min Rain = 0
KOD1 081611Z 20013KT 15/06 A2982 RMK A01 T01460058  RH  055%=      5-min Rain = 0
KOD1 081612Z 20013KT 15/06 A2982 RMK A01 T01480058  RH  055%=      5-min Rain = 0
KOD1 081613Z 19014KT 15/06 A2982 RMK A01 T01490058  RH  055%=      5-min Rain = 0
KOD1 081614Z 19014KT 15/06 A2982 RMK A01 T01500058  RH  054%=      5-min Rain = 0
KOD1 081615Z 20015KT 15/06 A2982 RMK A01 T01510058  RH  054%=      5-min Rain = 0
KOD1 081616Z 19016KT 15/06 A2982 RMK A01 T01490056  RH  054%=      5-min Rain = 0
KOD1 081617Z 19014KT 15/06 A2982 RMK A01 T01460055  RH  054%=      5-min Rain = 0
KOD1 081618Z 20012KT 15/06 A2982 RMK A01 T01460056  RH  055%=      5-min Rain = 0
KOD1 081619Z 20016KT 15/06 A2982 RMK A01 T01460056  RH  055%=      5-min Rain = 0
KOD1 081620Z 20015KT 15/06 A2982 RMK A01 T01450055  RH  055%=      5-min Rain = 0
KOD1 081621Z 20015KT 14/06 A2982 RMK A01 T01440055  RH  055%=      5-min Rain = 0
KOD1 081622Z 19015KT 14/06 A2982 RMK A01 T01430055  RH  055%=      5-min Rain = 0
KOD1 081623Z 20012KT 14/06 A2982 RMK A01 T01430056  RH  056%=      5-min Rain = 0
KOD1 081624Z 20014KT 14/06 A2982 RMK A01 T01440057  RH  056%=      5-min Rain = 0
KOD1 081625Z 20015KT 14/06 A2982 RMK A01 T01440056  RH  055%=      5-min Rain = 0
KOD1 081626Z 20015KT 15/06 A2982 RMK A01 T01450056  RH  055%=      5-min Rain = 0
KOD1 081627Z 20014KT 15/06 A2982 RMK A01 T01450056  RH  055%=      5-min Rain = 0
KOD1 081628Z 20014KT 15/06 A2982 RMK A01 T01460057  RH  055%=      5-min Rain = 0
KOD1 081629Z 21015KT 15/06 A2983 RMK A01 T01470057  RH  055%=      5-min Rain = 0
KOD1 081630Z 21014KT 15/06 A2983 RMK A01 T01470057  RH  055%=      5-min Rain = 0
KOD1 081631Z 20014KT 15/06 A2982 RMK A01 T01480058  RH  055%=      5-min Rain = 0
KOD1 081632Z 20014KT 15/06 A2982 RMK A01 T01480058  RH  055%=      5-min Rain = 0
KOD1 081633Z 20014KT 15/06 A2982 RMK A01 T01480058  RH  055%=      5-min Rain = 0
KOD1 081634Z 20013KT 15/06 A2982 RMK A01 T01480058  RH  055%=      5-min Rain = 0
KOD1 081635Z 19013KT 15/06 A2982 RMK A01 T01480058  RH  055%=      5-min Rain = 0
KOD1 081636Z 20015KT 15/06 A2982 RMK A01 T01480057  RH  055%=      5-min Rain = 0
KOD1 081637Z 20014KT 15/06 A2982 RMK A01 T01470057  RH  055%=      5-min Rain = 0
KOD1 081638Z 20013KT 15/06 A2982 RMK A01 T01470058  RH  055%=      5-min Rain = 0
KOD1 081639Z 20014KT 15/06 A2982 RMK A01 T01480058  RH  055%=      5-min Rain = 0
KOD1 081640Z 20013KT 15/06 A2982 RMK A01 T01480058  RH  055%=      5-min Rain = 0
KOD1 081641Z 21012KT 15/06 A2982 RMK A01 T01490058  RH  055%=      5-min Rain = 0
KOD1 081642Z 21011KT 15/06 A2982 RMK A01 T01500059  RH  055%=      5-min Rain = 0
KOD1 081643Z 21011KT 15/06 A2982 RMK A01 T01520059  RH  054%=      5-min Rain = 0
KOD1 081644Z 21013KT 15/06 A2982 RMK A01 T01530058  RH  053%=      5-min Rain = 0
KOD1 081645Z 21013KT 15/06 A2982 RMK A01 T01530057  RH  053%=      5-min Rain = 0
KOD1 081646Z 21011KT 15/06 A2982 RMK A01 T01530058  RH  053%=      5-min Rain = 0
KOD1 081647Z 21010KT 15/06 A2982 RMK A01 T01530058  RH  053%=      5-min Rain = 0
KOD1 081648Z 21012KT 15/06 A2982 RMK A01 T01530059  RH  053%=      5-min Rain = 0
KOD1 081649Z 20011KT 15/06 A2981 RMK A01 T01530058  RH  053%=      5-min Rain = 0
KOD1 081650Z 20011KT 15/06 A2981 RMK A01 T01540058  RH  053%=      5-min Rain = 0
KOD1 081651Z 20012KT 15/06 A2981 RMK A01 T01540058  RH  053%=      5-min Rain = 0
KOD1 081652Z 20011KT 15/06 A2981 RMK A01 T01540058  RH  053%=      5-min Rain = 0
KOD1 081653Z 20011KT 16/06 A2981 RMK A01 T01550059  RH  053%=      5-min Rain = 0
KOD1 081654Z 20011KT 16/06 A2981 RMK A01 T01550059  RH  053%=      5-min Rain = 0
KOD1 081655Z 20012KT 16/06 A2981 RMK A01 T01560058  RH  052%=      5-min Rain = 0
KOD1 081656Z 20012KT 16/06 A2981 RMK A01 T01560058  RH  052%=      5-min Rain = 0
KOD1 081657Z 21011KT 16/06 A2981 RMK A01 T01560059  RH  052%=      5-min Rain = 0
KOD1 081658Z 21010KT 16/06 A2982 RMK A01 T01580059  RH  052%=      5-min Rain = 0
KOD1 081659Z 20010KT 16/06 A2981 RMK A01 T01590061  RH  052%=      5-min Rain = 0
KOD1 081700Z 21011KT 16/06 A2981 RMK A01 T01600060  RH  051%=      5-min Rain = 0
KOD1 081701Z 21010KT 16/06 A2981 RMK A01 T01610059  RH  051%=      5-min Rain = 0
KOD1 081702Z 21010KT 16/06 A2981 RMK A01 T01610059  RH  051%=      5-min Rain = 0
KOD1 081703Z 20010KT 16/06 A2981 RMK A01 T01610060  RH  051%=      5-min Rain = 0
KOD1 081704Z 20009KT 16/06 A2981 RMK A01 T01610059  RH  051%=      5-min Rain = 0
KOD1 081705Z 20011KT 16/06 A2981 RMK A01 T01590059  RH  051%=      5-min Rain = 0
KOD1 081706Z 20011KT 16/06 A2981 RMK A01 T01590058  RH  051%=      5-min Rain = 0
KOD1 081707Z 20011KT 16/06 A2981 RMK A01 T01600059  RH  051%=      5-min Rain = 0
KOD1 081708Z 20010KT 16/06 A2981 RMK A01 T01610059  RH  051%=      5-min Rain = 0
KOD1 081709Z 20010KT 16/06 A2981 RMK A01 T01620059  RH  051%=      5-min Rain = 0
KOD1 081710Z 20011KT 16/06 A2981 RMK A01 T01620058  RH  050%=      5-min Rain = 0
KOD1 081711Z 20010KT 16/06 A2981 RMK A01 T01620058  RH  050%=      5-min Rain = 0
KOD1 081712Z 20009KT 16/06 A2981 RMK A01 T01620059  RH  050%=      5-min Rain = 0
KOD1 081713Z 20011KT 16/06 A2981 RMK A01 T01630059  RH  050%=      5-min Rain = 0
KOD1 081714Z 20011KT 16/06 A298 RMK A01 T01630059  RH  050%=      5-min Rain = 0
KOD1 081715Z 21011KT 16/06 A298 RMK A01 T01630058  RH  050%=      5-min Rain = 0
KOD1 081716Z 20009KT 16/06 A298 RMK A01 T01640059  RH  050%=      5-min Rain = 0
KOD1 081717Z 20008KT 16/06 A298 RMK A01 T01640060  RH  050%=      5-min Rain = 0
KOD1 081718Z 20008KT 17/06 A298 RMK A01 T01660061  RH  050%=      5-min Rain = 0
KOD1 081719Z 21008KT 17/06 A298 RMK A01 T01660061  RH  050%=      5-min Rain = 0
KOD1 081720Z 20007KT 17/06 A298 RMK A01 T01670062  RH  050%=      5-min Rain = 0
KOD1 081721Z 20007KT 17/06 A298 RMK A01 T01670060  RH  049%=      5-min Rain = 0
KOD1 081722Z 20008KT 17/06 A298 RMK A01 T01660061  RH  050%=      5-min Rain = 0
KOD1 081723Z 18008KT 17/06 A298 RMK A01 T01660062  RH  050%=      5-min Rain = 0
KOD1 081724Z 19008KT 17/06 A2979 RMK A01 T01690063  RH  050%=      5-min Rain = 0
KOD1 081725Z 19010KT 17/06 A2979 RMK A01 T01700062  RH  049%=      5-min Rain = 0
KOD1 081726Z 20008KT 17/06 A2979 RMK A01 T01710061  RH  048%=      5-min Rain = 0
KOD1 081727Z 19007KT 17/06 A2979 RMK A01 T01710063  RH  049%=      5-min Rain = 0
KOD1 081728Z 19007KT 17/06 A2979 RMK A01 T01730063  RH  048%=      5-min Rain = 0
KOD1 081729Z 19008KT 17/06 A2979 RMK A01 T01730063  RH  048%=      5-min Rain = 0
KOD1 081730Z 19008KT 17/06 A2979 RMK A01 T01740064  RH  048%=      5-min Rain = 0
KOD1 081731Z 19008KT 17/06 A2979 RMK A01 T01740063  RH  048%=      5-min Rain = 0
KOD1 081732Z 19007KT 17/06 A2979 RMK A01 T01740063  RH  048%=      5-min Rain = 0
KOD1 081733Z 19007KT 18/07 A2979 RMK A01 T01750065  RH  048%=      5-min Rain = 0
KOD1 081734Z 19009KT 18/06 A2979 RMK A01 T01780063  RH  047%=      5-min Rain = 0
KOD1 081735Z 20007KT 18/06 A2979 RMK A01 T01780064  RH  047%=      5-min Rain = 0
KOD1 081736Z 19008KT 18/07 A2979 RMK A01 T01800065  RH  047%=      5-min Rain = 0
KOD1 081737Z 19009KT 18/07 A2979 RMK A01 T01800065  RH  047%=      5-min Rain = 0
KOD1 081738Z 19009KT 18/07 A2979 RMK A01 T01800065  RH  047%=      5-min Rain = 0
KOD1 081739Z 19010KT 18/06 A2979 RMK A01 T01800062  RH  046%=      5-min Rain = 0
KOD1 081740Z 18011KT 18/06 A2979 RMK A01 T01790063  RH  046%=      5-min Rain = 0
KOD1 081741Z 20010KT 18/06 A2979 RMK A01 T01810064  RH  046%=      5-min Rain = 0
KOD1 081742Z 20010KT 18/06 A2979 RMK A01 T01820063  RH  046%=      5-min Rain = 0
KOD1 081743Z 20010KT 18/06 A2979 RMK A01 T01820063  RH  046%=      5-min Rain = 0
KOD1 081744Z 20011KT 18/06 A2979 RMK A01 T01840062  RH  045%=      5-min Rain = 0
KOD1 081745Z 20013KT 19/06 A2979 RMK A01 T01850060  RH  044%=      5-min Rain = 0
KOD1 081746Z 21013KT 19/06 A2978 RMK A01 T01850059  RH  043%=      5-min Rain = 0
KOD1 081747Z 22012KT 19/06 A2978 RMK A01 T01850057  RH  043%=      5-min Rain = 0
KOD1 081748Z 22012KT 19/06 A2978 RMK A01 T01860058  RH  043%=      5-min Rain = 0
KOD1 081749Z 21015KT 19/06 A2978 RMK A01 T01870057  RH  043%=      5-min Rain = 0
KOD1 081750Z 21015KT 19/06 A2978 RMK A01 T01870056  RH  042%=      5-min Rain = 0
KOD1 081751Z 22012KT 19/06 A2978 RMK A01 T01870057  RH  042%=      5-min Rain = 0
KOD1 081752Z 22012KT 19/06 A2978 RMK A01 T01880058  RH  043%=      5-min Rain = 0
KOD1 081753Z 21014KT 19/06 A2978 RMK A01 T01890058  RH  042%=      5-min Rain = 0
KOD1 081754Z 22013KT 19/06 A2978 RMK A01 T01890058  RH  042%=      5-min Rain = 0
KOD1 081755Z 21013KT 19/06 A2978 RMK A01 T01900060  RH  042%=      5-min Rain = 0
KOD1 081756Z 21015KT 19/06 A2978 RMK A01 T01910059  RH  042%=      5-min Rain = 0
KOD1 081757Z 21015KT 19/06 A2978 RMK A01 T01910058  RH  042%=      5-min Rain = 0
KOD1 081758Z 22015KT 19/06 A2978 RMK A01 T01910058  RH  042%=      5-min Rain = 0
KOD1 081759Z 22014KT 19/06 A2978 RMK A01 T01910058  RH  042%=      5-min Rain = 0
KOD1 081800Z 23015KT 19/06 A2978 RMK A01 T01910058  RH  042%=      5-min Rain = 0
KOD1 081801Z 22015KT 19/06 A2978 RMK A01 T01920059  RH  042%=      5-min Rain = 0
KOD1 081802Z 22016KT 19/06 A2977 RMK A01 T01920059  RH  042%=      5-min Rain = 0
KOD1 081803Z 23014KT 19/06 A2977 RMK A01 T01930060  RH  042%=      5-min Rain = 0
KOD1 081804Z 23012KT 20/06 A2977 RMK A01 T01960061  RH  041%=      5-min Rain = 0
KOD1 081805Z 21015KT 20/06 A2977 RMK A01 T01970059  RH  040%=      5-min Rain = 0
KOD1 081806Z 22014KT 19/06 A2977 RMK A01 T01940056  RH  040%=      5-min Rain = 0
KOD1 081807Z 22016KT 19/06 A2977 RMK A01 T01940058  RH  041%=      5-min Rain = 0
KOD1 081808Z 23015KT 19/06 A2977 RMK A01 T01930057  RH  041%=      5-min Rain = 0
KOD1 081809Z 23015KT 19/06 A2977 RMK A01 T01920057  RH  041%=      5-min Rain = 0
KOD1 081810Z 22015KT 19/06 A2977 RMK A01 T01920058  RH  042%=      5-min Rain = 0
KOD1 081811Z 23015KT 19/06 A2977 RMK A01 T01920058  RH  041%=      5-min Rain = 0
KOD1 081812Z 22018KT 19/06 A2977 RMK A01 T01920058  RH  042%=      5-min Rain = 0
KOD1 081813Z 22017KT 19/06 A2977 RMK A01 T01900058  RH  042%=      5-min Rain = 0
KOD1 081814Z 22017KT 19/06 A2977 RMK A01 T01900059  RH  042%=      5-min Rain = 0
KOD1 081815Z 22016KT 19/06 A2977 RMK A01 T01900058  RH  042%=      5-min Rain = 0
KOD1 081816Z 22016KT 19/06 A2977 RMK A01 T01900058  RH  042%=      5-min Rain = 0
KOD1 081817Z 22015KT 19/06 A2977 RMK A01 T01910058  RH  042%=      5-min Rain = 0
KOD1 081818Z 22015KT 19/06 A2977 RMK A01 T01910060  RH  042%=      5-min Rain = 0
KOD1 081819Z 22016KT 19/06 A2977 RMK A01 T01920059  RH  042%=      5-min Rain = 0
KOD1 081820Z 22013KT 19/06 A2977 RMK A01 T01920059  RH  042%=      5-min Rain = 0
KOD1 081821Z 22014KT 19/06 A2977 RMK A01 T01940060  RH  042%=      5-min Rain = 0
KOD1 081822Z 22014KT 19/06 A2977 RMK A01 T01940059  RH  041%=      5-min Rain = 0
KOD1 081823Z 22013KT 20/06 A2977 RMK A01 T01950059  RH  041%=      5-min Rain = 0
KOD1 081824Z 21013KT 20/06 A2977 RMK A01 T01950060  RH  041%=      5-min Rain = 0
KOD1 081825Z 21012KT 20/06 A2977 RMK A01 T01950060  RH  041%=      5-min Rain = 0
KOD1 081826Z 22012KT 20/06 A2977 RMK A01 T01950060  RH  041%=      5-min Rain = 0
KOD1 081827Z 22012KT 20/06 A2977 RMK A01 T01960061  RH  041%=      5-min Rain = 0
KOD1 081828Z 22012KT 20/06 A2977 RMK A01 T01960061  RH  041%=      5-min Rain = 0
KOD1 081829Z 21012KT 20/06 A2976 RMK A01 T01970060  RH  041%=      5-min Rain = 0
KOD1 081830Z 22013KT 20/06 A2976 RMK A01 T01970060  RH  041%=      5-min Rain = 0
KOD1 081831Z 22011KT 20/06 A2976 RMK A01 T01970059  RH  041%=      5-min Rain = 0
KOD1 081832Z 21012KT 20/06 A2976 RMK A01 T01970060  RH  041%=      5-min Rain = 0
KOD1 081833Z 22011KT 20/06 A2976 RMK A01 T01970061  RH  041%=      5-min Rain = 0
KOD1 081834Z 22013KT 20/06 A2977 RMK A01 T01980060  RH  041%=      5-min Rain = 0
KOD1 081835Z 22013KT 20/06 A2977 RMK A01 T01980059  RH  040%=      5-min Rain = 0
KOD1 081836Z 22013KT 20/06 A2976 RMK A01 T01980059  RH  040%=      5-min Rain = 0
KOD1 081837Z 22011KT 20/06 A2976 RMK A01 T01980060  RH  040%=      5-min Rain = 0
KOD1 081838Z 22012KT 20/06 A2976 RMK A01 T02000060  RH  040%=      5-min Rain = 0
KOD1 081839Z 22013KT 20/06 A2976 RMK A01 T02010060  RH  040%=      5-min Rain = 0
KOD1 081840Z 22013KT 20/06 A2976 RMK A01 T02020060  RH  039%=      5-min Rain = 0
KOD1 081841Z 22011KT 20/06 A2976 RMK A01 T02040061  RH  039%=      5-min Rain = 0
KOD1 081842Z 22012KT 20/06 A2976 RMK A01 T02040060  RH  039%=      5-min Rain = 0
KOD1 081843Z 22010KT 21/06 A2975 RMK A01 T02050061  RH  039%=      5-min Rain = 0
KOD1 081844Z 20009KT 21/06 A2975 RMK A01 T02060061  RH  039%=      5-min Rain = 0
KOD1 081845Z 21008KT 21/06 A2975 RMK A01 T02070062  RH  039%=      5-min Rain = 0
KOD1 081846Z 21012KT 21/06 A2975 RMK A01 T02080062  RH  039%=      5-min Rain = 0
KOD1 081847Z 21011KT 21/06 A2975 RMK A01 T02070060  RH  038%=      5-min Rain = 0
KOD1 081848Z 21010KT 21/06 A2975 RMK A01 T02060060  RH  039%=      5-min Rain = 0
KOD1 081849Z 21011KT 21/06 A2975 RMK A01 T02070063  RH  039%=      5-min Rain = 0
KOD1 081850Z 21011KT 21/06 A2975 RMK A01 T02080062  RH  039%=      5-min Rain = 0
KOD1 081851Z 21011KT 21/06 A2975 RMK A01 T02080062  RH  039%=      5-min Rain = 0
KOD1 081852Z 21011KT 21/06 A2975 RMK A01 T02070062  RH  039%=      5-min Rain = 0
KOD1 081853Z 19011KT 21/06 A2975 RMK A01 T02080062  RH  039%=      5-min Rain = 0
KOD1 081854Z 19011KT 21/06 A2975 RMK A01 T02060060  RH  038%=      5-min Rain = 0
KOD1 081855Z 19011KT 21/06 A2974 RMK A01 T02050061  RH  039%=      5-min Rain = 0
KOD1 081856Z 19010KT 20/06 A2974 RMK A01 T02040060  RH  039%=      5-min Rain = 0
KOD1 081857Z 19011KT 20/06 A2974 RMK A01 T02040061  RH  039%=      5-min Rain = 0
KOD1 081858Z 20010KT 20/06 A2974 RMK A01 T02030061  RH  039%=      5-min Rain = 0
KOD1 081859Z 20011KT 20/06 A2974 RMK A01 T02040063  RH  040%=      5-min Rain = 0
KOD1 081900Z 21012KT 20/06 A2974 RMK A01 T02040061  RH  039%=      5-min Rain = 0
KOD1 081901Z 20012KT 20/06 A2974 RMK A01 T02030061  RH  039%=      5-min Rain = 0
KOD1 081902Z 20012KT 20/06 A2974 RMK A01 T02030062  RH  040%=      5-min Rain = 0
KOD1 081903Z 20010KT 20/06 A2974 RMK A01 T02040062  RH  040%=      5-min Rain = 0
KOD1 081904Z 21010KT 20/06 A2974 RMK A01 T02040062  RH  040%=      5-min Rain = 0
KOD1 081905Z 20011KT 21/06 A2974 RMK A01 T02050062  RH  039%=      5-min Rain = 0
KOD1 081906Z 20009KT 20/06 A2973 RMK A01 T02040061  RH  039%=      5-min Rain = 0
KOD1 081907Z 21011KT 20/06 A2973 RMK A01 T02040062  RH  040%=      5-min Rain = 0
KOD1 081908Z 20011KT 20/06 A2973 RMK A01 T02030061  RH  039%=      5-min Rain = 0
KOD1 081909Z 20011KT 20/06 A2973 RMK A01 T02040063  RH  040%=      5-min Rain = 0
KOD1 081910Z 20013KT 21/06 A2973 RMK A01 T02050062  RH  039%=      5-min Rain = 0
KOD1 081911Z 19011KT 21/06 A2973 RMK A01 T02050062  RH  039%=      5-min Rain = 0
KOD1 081912Z 20010KT 21/06 A2973 RMK A01 T02050062  RH  039%=      5-min Rain = 0
KOD1 081913Z 20011KT 21/06 A2973 RMK A01 T02060063  RH  039%=      5-min Rain = 0
KOD1 081914Z 20012KT 21/06 A2973 RMK A01 T02050061  RH  039%=      5-min Rain = 0
KOD1 081915Z 20011KT 20/06 A2973 RMK A01 T02030061  RH  040%=      5-min Rain = 0
KOD1 081916Z 20012KT 20/06 A2973 RMK A01 T02020061  RH  040%=      5-min Rain = 0
KOD1 081917Z 20012KT 20/06 A2973 RMK A01 T02030062  RH  040%=      5-min Rain = 0
KOD1 081918Z 20010KT 21/06 A2973 RMK A01 T02050063  RH  040%=      5-min Rain = 0
KOD1 081919Z 20011KT 21/06 A2973 RMK A01 T02060063  RH  039%=      5-min Rain = 0
KOD1 081920Z 20010KT 21/06 A2973 RMK A01 T02070064  RH  039%=      5-min Rain = 0
KOD1 081921Z 20010KT 21/07 A2973 RMK A01 T02090065  RH  039%=      5-min Rain = 0
KOD1 081922Z 21009KT 21/06 A2973 RMK A01 T02110064  RH  038%=      5-min Rain = 0
KOD1 081923Z 21011KT 21/06 A2973 RMK A01 T02100064  RH  038%=      5-min Rain = 0
KOD1 081924Z 20009KT 21/07 A2972 RMK A01 T02110065  RH  039%=      5-min Rain = 0
KOD1 081925Z 19010KT 21/06 A2972 RMK A01 T02110064  RH  038%=      5-min Rain = 0
KOD1 081926Z 20009KT 21/06 A2972 RMK A01 T02110064  RH  038%=      5-min Rain = 0
KOD1 081927Z 19010KT 21/06 A2972 RMK A01 T02110062  RH  038%=      5-min Rain = 0
KOD1 081928Z 20010KT 21/06 A2972 RMK A01 T02100063  RH  038%=      5-min Rain = 0
KOD1 081929Z 20010KT 21/06 A2972 RMK A01 T02110064  RH  038%=      5-min Rain = 0
KOD1 081930Z 20011KT 21/06 A2972 RMK A01 T02120063  RH  038%=      5-min Rain = 0
KOD1 081931Z 21013KT 21/06 A2972 RMK A01 T02110062  RH  038%=      5-min Rain = 0
KOD1 081932Z 20012KT 21/06 A2972 RMK A01 T02110061  RH  038%=      5-min Rain = 0
KOD1 081933Z 19011KT 21/06 A2972 RMK A01 T02110062  RH  038%=      5-min Rain = 0
KOD1 081934Z 19011KT 21/06 A2971 RMK A01 T02120063  RH  038%=      5-min Rain = 0
KOD1 081935Z 20010KT 21/06 A2971 RMK A01 T02130062  RH  037%=      5-min Rain = 0
KOD1 081936Z 20011KT 22/07 A2971 RMK A01 T02150065  RH  038%=      5-min Rain = 0
KOD1 081937Z 21012KT 22/06 A2971 RMK A01 T02170062  RH  037%=      5-min Rain = 0
KOD1 081938Z 20012KT 22/06 A2971 RMK A01 T02180063  RH  036%=      5-min Rain = 0
KOD1 081939Z 20011KT 22/06 A2971 RMK A01 T02180061  RH  036%=      5-min Rain = 0
KOD1 081940Z 20013KT 22/06 A2971 RMK A01 T02180062  RH  036%=      5-min Rain = 0
KOD1 081941Z 20012KT 22/06 A2971 RMK A01 T02190061  RH  036%=      5-min Rain = 0
KOD1 081942Z 20009KT 22/06 A2971 RMK A01 T02190061  RH  036%=      5-min Rain = 0
KOD1 081943Z 20010KT 22/06 A2971 RMK A01 T02210063  RH  036%=      5-min Rain = 0
KOD1 081944Z 21012KT 22/06 A2971 RMK A01 T02230062  RH  035%=      5-min Rain = 0
KOD1 081945Z 21012KT 22/06 A2971 RMK A01 T02220062  RH  035%=      5-min Rain = 0
KOD1 081946Z 21012KT 22/06 A2971 RMK A01 T02220062  RH  035%=      5-min Rain = 0
KOD1 081947Z 20011KT 22/06 A2971 RMK A01 T02230061  RH  035%=      5-min Rain = 0
KOD1 081948Z 21011KT 22/06 A2971 RMK A01 T02220061  RH  035%=      5-min Rain = 0
KOD1 081949Z 21012KT 22/06 A2971 RMK A01 T02220063  RH  036%=      5-min Rain = 0
KOD1 081950Z 19012KT 22/06 A2971 RMK A01 T02230063  RH  035%=      5-min Rain = 0
KOD1 081951Z 20015KT 22/06 A2971 RMK A01 T02220061  RH  035%=      5-min Rain = 0
KOD1 081952Z 20014KT 22/06 A2971 RMK A01 T02190061  RH  036%=      5-min Rain = 0
KOD1 081953Z 20014KT 22/06 A2971 RMK A01 T02190062  RH  036%=      5-min Rain = 0
KOD1 081954Z 20016KT 22/06 A2971 RMK A01 T02180061  RH  036%=      5-min Rain = 0
KOD1 081955Z 20015KT 22/06 A2971 RMK A01 T02180061  RH  036%=      5-min Rain = 0
KOD1 081956Z 20015KT 22/06 A2971 RMK A01 T02180062  RH  036%=      5-min Rain = 0
KOD1 081957Z 20013KT 22/06 A2971 RMK A01 T02180062  RH  036%=      5-min Rain = 0
KOD1 081958Z 20015KT 22/06 A2971 RMK A01 T02180063  RH  036%=      5-min Rain = 0
KOD1 081959Z 20014KT 22/06 A2971 RMK A01 T02190063  RH  036%=      5-min Rain = 0
KOD1 082000Z 21013KT 22/06 A2971 RMK A01 T02190063  RH  036%=      5-min Rain = 0
KOD1 082001Z 20014KT 22/07 A2971 RMK A01 T02190065  RH  037%=      5-min Rain = 0
KOD1 082002Z 19015KT 22/07 A2971 RMK A01 T02190065  RH  037%=      5-min Rain = 0
KOD1 082003Z 19014KT 22/07 A2971 RMK A01 T02170065  RH  037%=      5-min Rain = 0
KOD1 082004Z 19014KT 22/07 A2971 RMK A01 T02150065  RH  038%=      5-min Rain = 0
KOD1 082005Z 20014KT 21/07 A2971 RMK A01 T02140065  RH  038%=      5-min Rain = 0
KOD1 082006Z 19011KT 21/07 A2971 RMK A01 T02140068  RH  039%=      5-min Rain = 0
KOD1 082007Z 19012KT 21/07 A2971 RMK A01 T02140068  RH  039%=      5-min Rain = 0
KOD1 082008Z 19012KT 21/07 A2971 RMK A01 T02140067  RH  039%=      5-min Rain = 0
KOD1 082009Z 19012KT 21/07 A2971 RMK A01 T02130067  RH  039%=      5-min Rain = 0
KOD1 082010Z 19014KT 21/07 A2971 RMK A01 T02130067  RH  039%=      5-min Rain = 0
KOD1 082011Z 19013KT 21/07 A2971 RMK A01 T02100066  RH  039%=      5-min Rain = 0
KOD1 082012Z 20013KT 21/07 A2971 RMK A01 T02090066  RH  039%=      5-min Rain = 0
KOD1 082013Z 19015KT 21/07 A2971 RMK A01 T02080065  RH  039%=      5-min Rain = 0
KOD1 082014Z 19016KT 21/06 A2971 RMK A01 T02070064  RH  039%=      5-min Rain = 0
KOD1 082015Z 19013KT 21/06 A2971 RMK A01 T02060064  RH  040%=      5-min Rain = 0
KOD1 082016Z 18014KT 21/07 A2971 RMK A01 T02060065  RH  040%=      5-min Rain = 0
KOD1 082017Z 18014KT 21/07 A2971 RMK A01 T02050065  RH  040%=      5-min Rain = 0
KOD1 082018Z 19011KT 21/07 A2971 RMK A01 T02050065  RH  040%=      5-min Rain = 0
KOD1 082019Z 20013KT 21/07 A2971 RMK A01 T02060066  RH  040%=      5-min Rain = 0
KOD1 082020Z 20013KT 21/07 A2971 RMK A01 T02060065  RH  040%=      5-min Rain = 0
KOD1 082021Z 19013KT 21/06 A2971 RMK A01 T02060064  RH  040%=      5-min Rain = 0
KOD1 082022Z 19013KT 21/07 A2971 RMK A01 T02060065  RH  040%=      5-min Rain = 0
KOD1 082023Z 19013KT 21/06 A2971 RMK A01 T02060064  RH  040%=      5-min Rain = 0
KOD1 082024Z 19013KT 21/06 A2971 RMK A01 T02060064  RH  040%=      5-min Rain = 0
KOD1 082025Z 19014KT 21/06 A2971 RMK A01 T02050064  RH  040%=      5-min Rain = 0
KOD1 082026Z 19014KT 21/06 A2971 RMK A01 T02050064  RH  040%=      5-min Rain = 0
KOD1 082027Z 19014KT 20/06 A2971 RMK A01 T02040064  RH  040%=      5-min Rain = 0
KOD1 082028Z 19013KT 20/06 A2971 RMK A01 T02040064  RH  040%=      5-min Rain = 0
KOD1 082029Z 19012KT 20/06 A2971 RMK A01 T02040064  RH  040%=      5-min Rain = 0
KOD1 082030Z 18012KT 20/07 A2971 RMK A01 T02040065  RH  040%=      5-min Rain = 0
KOD1 082031Z 18014KT 20/07 A2971 RMK A01 T02040065  RH  041%=      5-min Rain = 0
KOD1 082032Z 18012KT 20/06 A2971 RMK A01 T02030064  RH  040%=      5-min Rain = 0
KOD1 082033Z 18012KT 20/07 A2971 RMK A01 T02020065  RH  041%=      5-min Rain = 0
KOD1 082034Z 19011KT 20/07 A2971 RMK A01 T02030066  RH  041%=      5-min Rain = 0
KOD1 082035Z 18013KT 20/07 A297 RMK A01 T02040065  RH  041%=      5-min Rain = 0
KOD1 082036Z 18014KT 20/07 A297 RMK A01 T02040065  RH  040%=      5-min Rain = 0
KOD1 082037Z 18013KT 20/07 A297 RMK A01 T02040065  RH  040%=      5-min Rain = 0
KOD1 082038Z 17013KT 21/07 A2971 RMK A01 T02050066  RH  041%=      5-min Rain = 0
KOD1 082039Z 18013KT 20/07 A2971 RMK A01 T02040065  RH  040%=      5-min Rain = 0
KOD1 082040Z 18012KT 20/07 A2971 RMK A01 T02040065  RH  040%=      5-min Rain = 0
KOD1 082041Z 19011KT 20/07 A2971 RMK A01 T02040066  RH  041%=      5-min Rain = 0
KOD1 082042Z 18011KT 21/07 A2971 RMK A01 T02050066  RH  040%=      5-min Rain = 0
KOD1 082043Z 19011KT 21/07 A2971 RMK A01 T02060066  RH  040%=      5-min Rain = 0
KOD1 082044Z 19009KT 21/07 A297 RMK A01 T02060066  RH  040%=      5-min Rain = 0
KOD1 082045Z 18012KT 21/07 A297 RMK A01 T02060066  RH  040%=      5-min Rain = 0
KOD1 082046Z 19013KT 21/07 A297 RMK A01 T02060066  RH  040%=      5-min Rain = 0
KOD1 082047Z 19012KT 21/07 A297 RMK A01 T02060065  RH  040%=      5-min Rain = 0
KOD1 082048Z 19012KT 21/07 A297 RMK A01 T02060066  RH  040%=      5-min Rain = 0
KOD1 082049Z 19010KT 21/07 A297 RMK A01 T02060066  RH  040%=      5-min Rain = 0
KOD1 082050Z 18012KT 21/07 A297 RMK A01 T02070067  RH  040%=      5-min Rain = 0
KOD1 082051Z 18012KT 21/07 A297 RMK A01 T02080067  RH  040%=      5-min Rain = 0
KOD1 082052Z 19012KT 21/07 A2969 RMK A01 T02080066  RH  040%=      5-min Rain = 0
KOD1 082053Z 18011KT 21/07 A297 RMK A01 T02080067  RH  040%=      5-min Rain = 0
KOD1 082054Z 19014KT 21/07 A2969 RMK A01 T02090067  RH  040%=      5-min Rain = 0
KOD1 082055Z 19015KT 21/07 A2969 RMK A01 T02080065  RH  039%=      5-min Rain = 0
KOD1 082056Z 19013KT 21/07 A2969 RMK A01 T02080065  RH  040%=      5-min Rain = 0
KOD1 082057Z 18013KT 21/07 A2969 RMK A01 T02080065  RH  040%=      5-min Rain = 0
KOD1 082058Z 18012KT 21/07 A2969 RMK A01 T02080066  RH  040%=      5-min Rain = 0
KOD1 082059Z 19010KT 21/07 A2969 RMK A01 T02080066  RH  040%=      5-min Rain = 0
KOD1 082100Z 19010KT 21/07 A2969 RMK A01 T02090066  RH  039%=      5-min Rain = 0
KOD1 082101Z 18012KT 21/07 A2969 RMK A01 T02090066  RH  039%=      5-min Rain = 0
KOD1 082102Z 19011KT 21/07 A2969 RMK A01 T02090066  RH  040%=      5-min Rain = 0
KOD1 082103Z 19011KT 21/07 A2969 RMK A01 T02090066  RH  040%=      5-min Rain = 0
KOD1 082104Z 18011KT 21/07 A2969 RMK A01 T02090067  RH  040%=      5-min Rain = 0
KOD1 082105Z 18010KT 21/07 A2969 RMK A01 T02100066  RH  039%=      5-min Rain = 0
KOD1 082106Z 18009KT 21/07 A2969 RMK A01 T02090067  RH  040%=      5-min Rain = 0
KOD1 082107Z 17009KT 21/07 A2969 RMK A01 T02090068  RH  040%=      5-min Rain = 0
KOD1 082108Z 18012KT 21/07 A2969 RMK A01 T02090067  RH  040%=      5-min Rain = 0
KOD1 082109Z 18013G18KT 21/07 A2969 RMK A01 T02090067  RH  040%=      5-min Rain = 0
KOD1 082110Z 18012KT 21/07 A2969 RMK A01 T02080066  RH  040%=      5-min Rain = 0
KOD1 082111Z 18012KT 21/07 A2969 RMK A01 T02080067  RH  040%=      5-min Rain = 0
KOD1 082112Z 18012KT 21/07 A2968 RMK A01 T02090068  RH  040%=      5-min Rain = 0
KOD1 082113Z 19012KT 21/07 A2968 RMK A01 T02090068  RH  040%=      5-min Rain = 0
KOD1 082114Z 18012KT 21/07 A2968 RMK A01 T02100069  RH  040%=      5-min Rain = 0
KOD1 082115Z 19011KT 21/07 A2968 RMK A01 T02100069  RH  040%=      5-min Rain = 0
KOD1 082116Z 19013KT 21/07 A2968 RMK A01 T02100067  RH  039%=      5-min Rain = 0
KOD1 082117Z 18014KT 21/07 A2968 RMK A01 T02100068  RH  040%=      5-min Rain = 0
KOD1 082118Z 19013KT 21/07 A2968 RMK A01 T02100068  RH  040%=      5-min Rain = 0
KOD1 082119Z 19013KT 21/07 A2968 RMK A01 T02100067  RH  039%=      5-min Rain = 0
KOD1 082120Z 19012KT 21/07 A2968 RMK A01 T02100067  RH  039%=      5-min Rain = 0
KOD1 082121Z 19011KT 21/07 A2968 RMK A01 T02100068  RH  040%=      5-min Rain = 0
KOD1 082122Z 19013KT 21/07 A2968 RMK A01 T02100068  RH  040%=      5-min Rain = 0
KOD1 082123Z 19013KT 21/07 A2968 RMK A01 T02100068  RH  040%=      5-min Rain = 0
KOD1 082124Z 19014KT 21/07 A2968 RMK A01 T02100067  RH  039%=      5-min Rain = 0
KOD1 082125Z 19013KT 21/07 A2968 RMK A01 T02100068  RH  040%=      5-min Rain = 0
KOD1 082126Z 18012KT 21/07 A2968 RMK A01 T02100068  RH  040%=      5-min Rain = 0
KOD1 082127Z 19013KT 21/07 A2968 RMK A01 T02110068  RH  039%=      5-min Rain = 0
KOD1 082128Z 19012KT 21/07 A2968 RMK A01 T02110068  RH  040%=      5-min Rain = 0
KOD1 082129Z 18012KT 21/07 A2968 RMK A01 T02120068  RH  039%=      5-min Rain = 0
KOD1 082130Z 18012KT 21/07 A2968 RMK A01 T02120067  RH  039%=      5-min Rain = 0
KOD1 082131Z 19012KT 21/07 A2968 RMK A01 T02120068  RH  039%=      5-min Rain = 0
KOD1 082132Z 19015KT 21/07 A2968 RMK A01 T02130067  RH  039%=      5-min Rain = 0
KOD1 082133Z 19014KT 21/07 A2968 RMK A01 T02130066  RH  039%=      5-min Rain = 0
KOD1 082134Z 19015KT 21/07 A2968 RMK A01 T02140067  RH  039%=      5-min Rain = 0
KOD1 082135Z 19014KT 21/07 A2968 RMK A01 T02140067  RH  039%=      5-min Rain = 0
KOD1 082136Z 19015KT 22/07 A2968 RMK A01 T02150067  RH  038%=      5-min Rain = 0
KOD1 082137Z 19017KT 22/07 A2968 RMK A01 T02150066  RH  038%=      5-min Rain = 0
KOD1 082138Z 19013KT 22/07 A2968 RMK A01 T02150067  RH  038%=      5-min Rain = 0
KOD1 082139Z 19014KT 22/07 A2968 RMK A01 T02150067  RH  038%=      5-min Rain = 0
KOD1 082140Z 19013KT 22/07 A2968 RMK A01 T02150067  RH  038%=      5-min Rain = 0
KOD1 082141Z 19012KT 22/07 A2968 RMK A01 T02150068  RH  038%=      5-min Rain = 0
KOD1 082142Z 18014KT 22/07 A2968 RMK A01 T02150068  RH  038%=      5-min Rain = 0
KOD1 082143Z 18013KT 22/07 A2968 RMK A01 T02150067  RH  038%=      5-min Rain = 0
KOD1 082144Z 18013KT 22/07 A2967 RMK A01 T02150068  RH  039%=      5-min Rain = 0
KOD1 082145Z 17013KT 21/07 A2967 RMK A01 T02140069  RH  039%=      5-min Rain = 0
KOD1 082146Z 18011KT 21/07 A2967 RMK A01 T02140070  RH  039%=      5-min Rain = 0
KOD1 082147Z 18011KT 21/07 A2967 RMK A01 T02140070  RH  039%=      5-min Rain = 0
KOD1 082148Z 18011KT 21/07 A2967 RMK A01 T02140070  RH  039%=      5-min Rain = 0
KOD1 082149Z 18012KT 21/07 A2967 RMK A01 T02140070  RH  039%=      5-min Rain = 0
KOD1 082150Z 18012KT 21/07 A2967 RMK A01 T02140070  RH  039%=      5-min Rain = 0
KOD1 082151Z 18012KT 21/07 A2967 RMK A01 T02140070  RH  039%=      5-min Rain = 0
KOD1 082152Z 18014KT 21/07 A2967 RMK A01 T02130069  RH  039%=      5-min Rain = 0
KOD1 082153Z 18015KT 21/07 A2967 RMK A01 T02130069  RH  039%=      5-min Rain = 0
KOD1 082154Z 18014G19KT 21/07 A2967 RMK A01 T02140069  RH  039%=      5-min Rain = 0
KOD1 082155Z 18015KT 21/07 A2967 RMK A01 T02140069  RH  039%=      5-min Rain = 0
KOD1 082156Z 18014KT 21/07 A2967 RMK A01 T02140069  RH  039%=      5-min Rain = 0
KOD1 082157Z 18015KT 21/07 A2967 RMK A01 T02140069  RH  039%=      5-min Rain = 0
KOD1 082158Z 18015KT 21/07 A2967 RMK A01 T02140069  RH  039%=      5-min Rain = 0
KOD1 082159Z 18015KT 21/07 A2967 RMK A01 T02140070  RH  039%=      5-min Rain = 0
KOD1 082200Z 18014KT 21/07 A2967 RMK A01 T02140069  RH  039%=      5-min Rain = 0
KOD1 082201Z 18015KT 21/07 A2967 RMK A01 T02140070  RH  039%=      5-min Rain = 0
KOD1 082202Z 18014KT 21/07 A2967 RMK A01 T02140070  RH  039%=      5-min Rain = 0
KOD1 082203Z 18014KT 21/07 A2967 RMK A01 T02140071  RH  039%=      5-min Rain = 0
KOD1 082204Z 18014KT 21/07 A2966 RMK A01 T02140070  RH  039%=      5-min Rain = 0
KOD1 082205Z 18015KT 21/07 A2966 RMK A01 T02140070  RH  039%=      5-min Rain = 0
KOD1 082206Z 18015KT 21/07 A2966 RMK A01 T02140070  RH  039%=      5-min Rain = 0
KOD1 082207Z 18016KT 21/07 A2966 RMK A01 T02140070  RH  039%=      5-min Rain = 0
KOD1 082208Z 18014KT 22/07 A2966 RMK A01 T02150070  RH  039%=      5-min Rain = 0
KOD1 082209Z 19015KT 22/07 A2966 RMK A01 T02150069  RH  039%=      5-min Rain = 0
KOD1 082210Z 19015KT 22/07 A2966 RMK A01 T02160069  RH  039%=      5-min Rain = 0
KOD1 082211Z 19015KT 22/07 A2966 RMK A01 T02160069  RH  039%=      5-min Rain = 0
KOD1 082212Z 19016KT 22/07 A2966 RMK A01 T02170068  RH  038%=      5-min Rain = 0
KOD1 082213Z 19014KT 22/07 A2966 RMK A01 T02170068  RH  038%=      5-min Rain = 0
KOD1 082214Z 19015KT 22/07 A2966 RMK A01 T02170068  RH  038%=      5-min Rain = 0
KOD1 082215Z 19016KT 22/07 A2966 RMK A01 T02170068  RH  038%=      5-min Rain = 0
KOD1 082216Z 19017KT 22/07 A2966 RMK A01 T02170068  RH  038%=      5-min Rain = 0
KOD1 082217Z 19017KT 22/07 A2967 RMK A01 T02170068  RH  038%=      5-min Rain = 0
KOD1 082218Z 19017KT 22/07 A2966 RMK A01 T02180068  RH  038%=      5-min Rain = 0
KOD1 082219Z 19017KT 22/07 A2967 RMK A01 T02180068  RH  038%=      5-min Rain = 0
KOD1 082220Z 19014KT 22/07 A2966 RMK A01 T02180068  RH  038%=      5-min Rain = 0
KOD1 082221Z 18017KT 22/07 A2966 RMK A01 T02170068  RH  038%=      5-min Rain = 0
KOD1 082222Z 19014KT 22/07 A2966 RMK A01 T02180069  RH  038%=      5-min Rain = 0
KOD1 082223Z 19017KT 22/07 A2966 RMK A01 T02170068  RH  038%=      5-min Rain = 0
KOD1 082224Z 19017KT 22/07 A2966 RMK A01 T02180067  RH  038%=      5-min Rain = 0
KOD1 082225Z 19016KT 22/07 A2966 RMK A01 T02180067  RH  038%=      5-min Rain = 0
KOD1 082226Z 19015KT 22/07 A2967 RMK A01 T02180068  RH  038%=      5-min Rain = 0
KOD1 082227Z 19016KT 22/07 A2967 RMK A01 T02170068  RH  038%=      5-min Rain = 0
KOD1 082228Z 18016KT 22/07 A2967 RMK A01 T02180067  RH  038%=      5-min Rain = 0
KOD1 082229Z 19017KT 22/07 A2967 RMK A01 T02180067  RH  037%=      5-min Rain = 0
KOD1 082230Z 19015KT 22/07 A2966 RMK A01 T02190067  RH  037%=      5-min Rain = 0
KOD1 082231Z 19016KT 22/07 A2966 RMK A01 T02190066  RH  037%=      5-min Rain = 0
KOD1 082232Z 18015KT 22/07 A2966 RMK A01 T02190066  RH  037%=      5-min Rain = 0
KOD1 082233Z 18014KT 22/07 A2966 RMK A01 T02180067  RH  037%=      5-min Rain = 0
KOD1 082234Z 19012KT 22/07 A2966 RMK A01 T02170067  RH  038%=      5-min Rain = 0
KOD1 082235Z 19014KT 22/07 A2966 RMK A01 T02160068  RH  038%=      5-min Rain = 0
KOD1 082236Z 19012KT 22/07 A2966 RMK A01 T02160067  RH  038%=      5-min Rain = 0
KOD1 082237Z 19012KT 22/07 A2966 RMK A01 T02160067  RH  038%=      5-min Rain = 0
KOD1 082238Z 19011KT 22/07 A2966 RMK A01 T02150068  RH  038%=      5-min Rain = 0
KOD1 082239Z 19014KT 22/07 A2966 RMK A01 T02150067  RH  038%=      5-min Rain = 0
KOD1 082240Z 19011KT 22/07 A2966 RMK A01 T02150067  RH  038%=      5-min Rain = 0
KOD1 082241Z 19013KT 22/07 A2966 RMK A01 T02150067  RH  038%=      5-min Rain = 0
KOD1 082242Z 18012KT 22/07 A2966 RMK A01 T02150067  RH  038%=      5-min Rain = 0
KOD1 082243Z 18014KT 21/07 A2966 RMK A01 T02140067  RH  038%=      5-min Rain = 0
KOD1 082244Z 19014G19KT 21/07 A2966 RMK A01 T02140066  RH  038%=      5-min Rain = 0
KOD1 082245Z 19017KT 22/07 A2966 RMK A01 T02150066  RH  038%=      5-min Rain = 0
KOD1 082246Z 19018KT 22/07 A2966 RMK A01 T02170065  RH  037%=      5-min Rain = 0
KOD1 082247Z 19016KT 22/07 A2966 RMK A01 T02180065  RH  037%=      5-min Rain = 0
KOD1 082248Z 19015KT 22/07 A2966 RMK A01 T02170065  RH  037%=      5-min Rain = 0
KOD1 082249Z 19013KT 22/07 A2966 RMK A01 T02170065  RH  037%=      5-min Rain = 0
KOD1 082250Z 19014KT 22/07 A2966 RMK A01 T02160065  RH  038%=      5-min Rain = 0
KOD1 082251Z 19012KT 22/07 A2966 RMK A01 T02150065  RH  038%=      5-min Rain = 0
KOD1 082252Z 19013KT 21/07 A2965 RMK A01 T02140065  RH  038%=      5-min Rain = 0
KOD1 082253Z 19013KT 22/07 A2965 RMK A01 T02150065  RH  038%=      5-min Rain = 0
KOD1 082254Z 19013KT 22/07 A2965 RMK A01 T02150065  RH  038%=      5-min Rain = 0
KOD1 082255Z 19013KT 21/06 A2965 RMK A01 T02140064  RH  038%=      5-min Rain = 0
KOD1 082256Z 19011KT 21/07 A2965 RMK A01 T02140065  RH  038%=      5-min Rain = 0
KOD1 082257Z 19012KT 21/07 A2966 RMK A01 T02130065  RH  038%=      5-min Rain = 0
KOD1 082258Z 20013KT 21/07 A2966 RMK A01 T02130065  RH  038%=      5-min Rain = 0
KOD1 082259Z 20012KT 21/06 A2966 RMK A01 T02140064  RH  038%=      5-min Rain = 0
KOD1 082300Z 19013KT 21/07 A2966 RMK A01 T02130065  RH  038%=      5-min Rain = 0
KOD1 082301Z 19012KT 21/07 A2966 RMK A01 T02120065  RH  038%=      5-min Rain = 0
KOD1 082302Z 19011KT 21/07 A2967 RMK A01 T02110065  RH  039%=      5-min Rain = 0
KOD1 082303Z 19013KT 21/06 A2967 RMK A01 T02110064  RH  039%=      5-min Rain = 0
KOD1 082304Z 19012KT 21/07 A2967 RMK A01 T02120065  RH  038%=      5-min Rain = 0
KOD1 082305Z 19010KT 21/07 A2967 RMK A01 T02110065  RH  039%=      5-min Rain = 0
KOD1 082306Z 19011KT 21/07 A2967 RMK A01 T02090065  RH  039%=      5-min Rain = 0
KOD1 082307Z 19011KT 21/07 A2967 RMK A01 T02080065  RH  039%=      5-min Rain = 0
KOD1 082308Z 19011KT 21/07 A2967 RMK A01 T02080065  RH  039%=      5-min Rain = 0
KOD1 082309Z 19011KT 21/07 A2967 RMK A01 T02080065  RH  039%=      5-min Rain = 0
KOD1 082310Z 19010KT 21/07 A2967 RMK A01 T02070065  RH  040%=      5-min Rain = 0
KOD1 082311Z 19012KT 21/07 A2967 RMK A01 T02060065  RH  040%=      5-min Rain = 0
KOD1 082312Z 19011KT 21/06 A2967 RMK A01 T02060064  RH  040%=      5-min Rain = 0
KOD1 082313Z 19009KT 21/07 A2966 RMK A01 T02060065  RH  040%=      5-min Rain = 0
KOD1 082314Z 18011KT 20/07 A2966 RMK A01 T02040065  RH  040%=      5-min Rain = 0
KOD1 082315Z 18011KT 20/07 A2966 RMK A01 T02030065  RH  041%=      5-min Rain = 0
KOD1 082316Z 19011KT 20/07 A2966 RMK A01 T02010065  RH  041%=      5-min Rain = 0
KOD1 082317Z 18010KT 20/07 A2966 RMK A01 T02010065  RH  041%=      5-min Rain = 0
KOD1 082318Z 18011KT 20/07 A2966 RMK A01 T02000065  RH  041%=      5-min Rain = 0
KOD1 082319Z 18011KT 20/07 A2967 RMK A01 T02000065  RH  041%=      5-min Rain = 0
KOD1 082320Z 18010KT 20/07 A2967 RMK A01 T01990065  RH  042%=      5-min Rain = 0
KOD1 082321Z 19010KT 20/07 A2967 RMK A01 T01990065  RH  042%=      5-min Rain = 0
KOD1 082322Z 18011KT 20/07 A2967 RMK A01 T02000065  RH  041%=      5-min Rain = 0
KOD1 082323Z 18010KT 20/07 A2967 RMK A01 T01990065  RH  041%=      5-min Rain = 0
KOD1 082324Z 18009KT 20/07 A2967 RMK A01 T01970065  RH  042%=      5-min Rain = 0
KOD1 082325Z 18009KT 20/07 A2967 RMK A01 T01960065  RH  042%=      5-min Rain = 0
KOD1 082326Z 18008KT 20/07 A2967 RMK A01 T01960065  RH  042%=      5-min Rain = 0
KOD1 082327Z 18008KT 19/07 A2967 RMK A01 T01940065  RH  043%=      5-min Rain = 0
KOD1 082328Z 18009KT 19/07 A2967 RMK A01 T01920065  RH  043%=      5-min Rain = 0
KOD1 082329Z 17008KT 19/07 A2967 RMK A01 T01920065  RH  044%=      5-min Rain = 0
KOD1 082330Z 17007KT 19/07 A2967 RMK A01 T01900065  RH  044%=      5-min Rain = 0
KOD1 082331Z 17007KT 19/07 A2967 RMK A01 T01870066  RH  045%=      5-min Rain = 0
KOD1 082332Z 17007KT 19/07 A2967 RMK A01 T01850067  RH  046%=      5-min Rain = 0
KOD1 082333Z 17008KT 18/07 A2966 RMK A01 T01840067  RH  047%=      5-min Rain = 0
KOD1 082334Z 17008KT 18/07 A2966 RMK A01 T01820067  RH  047%=      5-min Rain = 0
KOD1 082335Z 17007KT 18/07 A2967 RMK A01 T01810067  RH  047%=      5-min Rain = 0
KOD1 082336Z 17007KT 18/07 A2967 RMK A01 T01800067  RH  048%=      5-min Rain = 0
KOD1 082337Z 17007KT 18/07 A2967 RMK A01 T01780068  RH  048%=      5-min Rain = 0
KOD1 082338Z 18007KT 18/07 A2966 RMK A01 T01780068  RH  048%=      5-min Rain = 0
KOD1 082339Z 17007KT 18/07 A2966 RMK A01 T01780067  RH  048%=      5-min Rain = 0
KOD1 082340Z 18008KT 18/07 A2966 RMK A01 T01770067  RH  049%=      5-min Rain = 0
KOD1 082341Z 18008KT 18/07 A2967 RMK A01 T01760067  RH  049%=      5-min Rain = 0
KOD1 082342Z 18007KT 18/07 A2967 RMK A01 T01760067  RH  049%=      5-min Rain = 0
KOD1 082343Z 19008KT 18/07 A2967 RMK A01 T01770066  RH  048%=      5-min Rain = 0
KOD1 082344Z 19008KT 18/07 A2967 RMK A01 T01800065  RH  047%=      5-min Rain = 0
KOD1 082345Z 19009KT 18/07 A2967 RMK A01 T01830065  RH  046%=      5-min Rain = 0
KOD1 082346Z 19009KT 19/06 A2967 RMK A01 T01860064  RH  045%=      5-min Rain = 0
KOD1 082347Z 20009KT 19/06 A2967 RMK A01 T01890064  RH  044%=      5-min Rain = 0
KOD1 082348Z 20009KT 19/06 A2967 RMK A01 T01900064  RH  044%=      5-min Rain = 0
KOD1 082349Z 19008KT 19/06 A2967 RMK A01 T01910064  RH  043%=      5-min Rain = 0
KOD1 082350Z 20009KT 19/06 A2967 RMK A01 T01910064  RH  043%=      5-min Rain = 0
KOD1 082351Z 20009KT 19/06 A2967 RMK A01 T01930064  RH  043%=      5-min Rain = 0
KOD1 082352Z 20010KT 19/06 A2967 RMK A01 T01930064  RH  043%=      5-min Rain = 0
KOD1 082353Z 19011KT 19/06 A2967 RMK A01 T01940063  RH  042%=      5-min Rain = 0
KOD1 082354Z 19011KT 20/06 A2967 RMK A01 T01950063  RH  042%=      5-min Rain = 0
KOD1 082355Z 20011KT 20/06 A2967 RMK A01 T01960063  RH  042%=      5-min Rain = 0
KOD1 082356Z 20011KT 20/06 A2967 RMK A01 T01960063  RH  042%=      5-min Rain = 0
KOD1 082357Z 20012KT 20/06 A2967 RMK A01 T01960063  RH  042%=      5-min Rain = 0
KOD1 082358Z 20012KT 20/06 A2967 RMK A01 T01960063  RH  042%=      5-min Rain = 0
KOD1 082359Z 19012KT 20/06 A2967 RMK A01 T01980062  RH  041%=      5-min Rain = 0
KOD1 090000Z 20012KT 20/06 A2967 RMK A01 T01980062  RH  041%=      5-min Rain = 0
KOD1 090001Z 20011KT 20/06 A2967 RMK A01 T01970062  RH  041%=      5-min Rain = 0
KOD1 090002Z 20011KT 20/06 A2967 RMK A01 T01970062  RH  041%=      5-min Rain = 0
KOD1 090003Z 20012KT 20/06 A2967 RMK A01 T01970062  RH  041%=      5-min Rain = 0
KOD1 090004Z 19011KT 20/06 A2967 RMK A01 T01970062  RH  041%=      5-min Rain = 0
KOD1 090005Z 20011KT 20/06 A2967 RMK A01 T01950063  RH  042%=      5-min Rain = 0
KOD1 090006Z 20011KT 20/06 A2967 RMK A01 T01950063  RH  042%=      5-min Rain = 0
KOD1 090007Z 20011KT 19/06 A2967 RMK A01 T01940063  RH  042%=      5-min Rain = 0
KOD1 090008Z 20010KT 19/06 A2967 RMK A01 T01940062  RH  042%=      5-min Rain = 0
KOD1 090009Z 20010KT 19/06 A2967 RMK A01 T01940063  RH  042%=      5-min Rain = 0
KOD1 090010Z 20011KT 20/06 A2967 RMK A01 T01960062  RH  042%=      5-min Rain = 0
KOD1 090011Z 20009KT 20/06 A2967 RMK A01 T01970062  RH  041%=      5-min Rain = 0
KOD1 090012Z 20010KT 20/06 A2967 RMK A01 T01960062  RH  042%=      5-min Rain = 0
KOD1 090013Z 20010KT 20/06 A2967 RMK A01 T01960062  RH  042%=      5-min Rain = 0
KOD1 090014Z 20010KT 20/06 A2967 RMK A01 T01950063  RH  042%=      5-min Rain = 0
KOD1 090015Z 20010KT 19/06 A2967 RMK A01 T01940063  RH  042%=      5-min Rain = 0
KOD1 090016Z 20010KT 19/06 A2967 RMK A01 T01940062  RH  042%=      5-min Rain = 0
KOD1 090017Z 20010KT 20/06 A2967 RMK A01 T01960062  RH  042%=      5-min Rain = 0
KOD1 090018Z 20009KT 20/06 A2967 RMK A01 T01970062  RH  041%=      5-min Rain = 0
KOD1 090019Z 20009KT 20/06 A2967 RMK A01 T01960063  RH  042%=      5-min Rain = 0
KOD1 090020Z 21009KT 20/06 A2967 RMK A01 T01950062  RH  042%=      5-min Rain = 0
KOD1 090021Z 20009KT 20/06 A2967 RMK A01 T01950062  RH  042%=      5-min Rain = 0
KOD1 090022Z 20011KT 20/06 A2967 RMK A01 T01960062  RH  041%=      5-min Rain = 0
KOD1 090023Z 21010KT 20/06 A2967 RMK A01 T01980062  RH  041%=      5-min Rain = 0
KOD1 090024Z 21010KT 20/06 A2967 RMK A01 T01980062  RH  041%=      5-min Rain = 0
KOD1 090025Z 21010KT 20/06 A2967 RMK A01 T01980063  RH  041%=      5-min Rain = 0
KOD1 090026Z 21011KT 20/06 A2967 RMK A01 T01970062  RH  041%=      5-min Rain = 0
KOD1 090027Z 21010KT 20/06 A2967 RMK A01 T01970062  RH  041%=      5-min Rain = 0
KOD1 090028Z 21010KT 20/06 A2967 RMK A01 T01960063  RH  042%=      5-min Rain = 0
KOD1 090029Z 20010KT 20/06 A2967 RMK A01 T01950063  RH  042%=      5-min Rain = 0
KOD1 090030Z 20011KT 20/06 A2967 RMK A01 T01950062  RH  042%=      5-min Rain = 0
KOD1 090031Z 20010KT 20/06 A2967 RMK A01 T01970062  RH  041%=      5-min Rain = 0
KOD1 090032Z 20011KT 20/06 A2967 RMK A01 T01970062  RH  041%=      5-min Rain = 0
KOD1 090033Z 20011KT 20/06 A2967 RMK A01 T01980062  RH  041%=      5-min Rain = 0
KOD1 090034Z 20011KT 20/06 A2967 RMK A01 T01990062  RH  041%=      5-min Rain = 0
KOD1 090035Z 21010KT 20/06 A2967 RMK A01 T01990062  RH  041%=      5-min Rain = 0
KOD1 090036Z 21010KT 20/06 A2967 RMK A01 T01990062  RH  041%=      5-min Rain = 0
KOD1 090037Z 20009KT 20/06 A2967 RMK A01 T01980062  RH  041%=      5-min Rain = 0
KOD1 090038Z 20009KT 20/06 A2967 RMK A01 T01980062  RH  041%=      5-min Rain = 0
KOD1 090039Z 21009KT 20/06 A2967 RMK A01 T01970062  RH  041%=      5-min Rain = 0
KOD1 090040Z 20010KT 20/06 A2967 RMK A01 T01970062  RH  041%=      5-min Rain = 0
KOD1 090041Z 20009KT 20/06 A2967 RMK A01 T01970062  RH  041%=      5-min Rain = 0
KOD1 090042Z 20009KT 20/06 A2967 RMK A01 T01960062  RH  041%=      5-min Rain = 0
KOD1 090043Z 20009KT 20/06 A2967 RMK A01 T01960062  RH  042%=      5-min Rain = 0
KOD1 090044Z 20009KT 20/06 A2967 RMK A01 T01950062  RH  042%=      5-min Rain = 0
KOD1 090045Z 21009KT 19/06 A2967 RMK A01 T01940062  RH  042%=      5-min Rain = 0
KOD1 090046Z 20010KT 19/06 A2967 RMK A01 T01940062  RH  042%=      5-min Rain = 0
KOD1 090047Z 21009KT 19/06 A2967 RMK A01 T01940062  RH  042%=      5-min Rain = 0
KOD1 090048Z 21010KT 20/06 A2967 RMK A01 T01950061  RH  042%=      5-min Rain = 0
KOD1 090049Z 21011KT 20/06 A2967 RMK A01 T01960062  RH  042%=      5-min Rain = 0
KOD1 090050Z 21009KT 20/06 A2967 RMK A01 T01960062  RH  042%=      5-min Rain = 0
KOD1 090051Z 21010KT 20/06 A2967 RMK A01 T01950062  RH  042%=      5-min Rain = 0
KOD1 090052Z 21010KT 19/06 A2967 RMK A01 T01940062  RH  042%=      5-min Rain = 0
KOD1 090053Z 21010KT 19/06 A2967 RMK A01 T01940062  RH  042%=      5-min Rain = 0
KOD1 090054Z 21011KT 19/06 A2967 RMK A01 T01930062  RH  042%=      5-min Rain = 0
KOD1 090055Z 21010KT 19/06 A2967 RMK A01 T01930061  RH  042%=      5-min Rain = 0
KOD1 090056Z 21011KT 19/06 A2967 RMK A01 T01940061  RH  042%=      5-min Rain = 0
KOD1 090057Z 22011KT 19/06 A2967 RMK A01 T01940061  RH  042%=      5-min Rain = 0
KOD1 090058Z 21011KT 19/06 A2967 RMK A01 T01930061  RH  042%=      5-min Rain = 0
KOD1 090059Z 22012KT 19/06 A2967 RMK A01 T01930061  RH  042%=      5-min Rain = 0
KOD1 090100Z 22011KT 19/06 A2967 RMK A01 T01940061  RH  042%=      5-min Rain = 0
KOD1 090101Z 22011KT 19/06 A2967 RMK A01 T01940061  RH  042%=      5-min Rain = 0
KOD1 090102Z 22011KT 19/06 A2967 RMK A01 T01930061  RH  042%=      5-min Rain = 0
KOD1 090103Z 22012KT 19/06 A2967 RMK A01 T01920062  RH  042%=      5-min Rain = 0
KOD1 090104Z 22011KT 19/06 A2967 RMK A01 T01920062  RH  043%=      5-min Rain = 0
KOD1 090105Z 21011KT 19/06 A2967 RMK A01 T01910061  RH  043%=      5-min Rain = 0
KOD1 090106Z 21011KT 19/06 A2967 RMK A01 T01900062  RH  043%=      5-min Rain = 0
KOD1 090107Z 21011KT 19/06 A2967 RMK A01 T01890062  RH  043%=      5-min Rain = 0
KOD1 090108Z 21010KT 19/06 A2967 RMK A01 T01890062  RH  043%=      5-min Rain = 0
KOD1 090109Z 21010KT 19/06 A2967 RMK A01 T01880061  RH  043%=      5-min Rain = 0
KOD1 090110Z 21011KT 19/06 A2967 RMK A01 T01880061  RH  044%=      5-min Rain = 0
KOD1 090111Z 21011KT 19/06 A2967 RMK A01 T01890061  RH  043%=      5-min Rain = 0
KOD1 090112Z 21011KT 19/06 A2967 RMK A01 T01890061  RH  043%=      5-min Rain = 0
KOD1 090113Z 21010KT 19/06 A2967 RMK A01 T01900061  RH  043%=      5-min Rain = 0
KOD1 090114Z 21011KT 19/06 A2967 RMK A01 T01890061  RH  043%=      5-min Rain = 0
KOD1 090115Z 20011KT 19/06 A2967 RMK A01 T01890061  RH  043%=      5-min Rain = 0
KOD1 090116Z 20010KT 19/06 A2967 RMK A01 T01890061  RH  043%=      5-min Rain = 0
KOD1 090117Z 21011KT 19/06 A2967 RMK A01 T01880061  RH  043%=      5-min Rain = 0
KOD1 090118Z 21010KT 19/06 A2967 RMK A01 T01870061  RH  044%=      5-min Rain = 0
KOD1 090119Z 21010KT 19/06 A2967 RMK A01 T01860061  RH  044%=      5-min Rain = 0
KOD1 090120Z 21010KT 19/06 A2967 RMK A01 T01870060  RH  044%=      5-min Rain = 0
KOD1 090121Z 21009KT 19/06 A2967 RMK A01 T01870060  RH  043%=      5-min Rain = 0
KOD1 090122Z 21009KT 19/06 A2967 RMK A01 T01860060  RH  044%=      5-min Rain = 0
KOD1 090123Z 21009KT 19/06 A2967 RMK A01 T01860060  RH  044%=      5-min Rain = 0
KOD1 090124Z 21008KT 19/06 A2967 RMK A01 T01850061  RH  044%=      5-min Rain = 0
KOD1 090125Z 21008KT 19/06 A2967 RMK A01 T01850061  RH  044%=      5-min Rain = 0
KOD1 090126Z 20009KT 19/06 A2967 RMK A01 T01850060  RH  044%=      5-min Rain = 0
KOD1 090127Z 21009KT 18/06 A2967 RMK A01 T01840060  RH  044%=      5-min Rain = 0
KOD1 090128Z 20009KT 18/06 A2967 RMK A01 T01840060  RH  044%=      5-min Rain = 0
KOD1 090129Z 21009KT 19/06 A2967 RMK A01 T01860060  RH  044%=      5-min Rain = 0
KOD1 090130Z 20009KT 19/06 A2967 RMK A01 T01870059  RH  043%=      5-min Rain = 0
KOD1 090131Z 20008KT 19/06 A2967 RMK A01 T01880059  RH  043%=      5-min Rain = 0
KOD1 090132Z 20007KT 19/06 A2967 RMK A01 T01880060  RH  043%=      5-min Rain = 0
KOD1 090133Z 20008KT 19/06 A2967 RMK A01 T01870060  RH  043%=      5-min Rain = 0
KOD1 090134Z 20007KT 19/06 A2967 RMK A01 T01870059  RH  043%=      5-min Rain = 0
KOD1 090135Z 20006KT 19/06 A2967 RMK A01 T01860060  RH  044%=      5-min Rain = 0
KOD1 090136Z 21007KT 18/06 A2967 RMK A01 T01840060  RH  044%=      5-min Rain = 0
KOD1 090137Z 20006KT 18/06 A2967 RMK A01 T01830060  RH  045%=      5-min Rain = 0
KOD1 090138Z 20006KT 18/06 A2967 RMK A01 T01820060  RH  045%=      5-min Rain = 0
KOD1 090139Z 20007KT 18/06 A2967 RMK A01 T01830060  RH  044%=      5-min Rain = 0
KOD1 090140Z 20006KT 18/06 A2967 RMK A01 T01840060  RH  044%=      5-min Rain = 0
KOD1 090141Z 20005KT 18/06 A2967 RMK A01 T01840060  RH  044%=      5-min Rain = 0
KOD1 090142Z 21006KT 18/06 A2967 RMK A01 T01830060  RH  045%=      5-min Rain = 0
KOD1 090143Z 21005KT 18/06 A2967 RMK A01 T01800060  RH  045%=      5-min Rain = 0
KOD1 090144Z 21006KT 18/06 A2967 RMK A01 T01790060  RH  045%=      5-min Rain = 0
KOD1 090145Z 21006KT 18/06 A2967 RMK A01 T01800060  RH  045%=      5-min Rain = 0
KOD1 090146Z 21007KT 18/06 A2967 RMK A01 T01800060  RH  045%=      5-min Rain = 0
KOD1 090147Z 21006KT 18/06 A2967 RMK A01 T01810060  RH  045%=      5-min Rain = 0
KOD1 090148Z 21006KT 18/06 A2967 RMK A01 T01800060  RH  045%=      5-min Rain = 0
KOD1 090149Z 22006KT 18/06 A2967 RMK A01 T01800061  RH  046%=      5-min Rain = 0
KOD1 090150Z 22006KT 18/06 A2967 RMK A01 T01790061  RH  046%=      5-min Rain = 0
KOD1 090151Z 23006KT 18/06 A2967 RMK A01 T01780060  RH  046%=      5-min Rain = 0
KOD1 090152Z 23007KT 18/06 A2967 RMK A01 T01800060  RH  045%=      5-min Rain = 0
KOD1 090153Z 23007KT 18/06 A2967 RMK A01 T01830061  RH  045%=      5-min Rain = 0
KOD1 090154Z 23008KT 18/06 A2967 RMK A01 T01840061  RH  045%=      5-min Rain = 0
KOD1 090155Z 23009KT 18/06 A2967 RMK A01 T01840062  RH  045%=      5-min Rain = 0
KOD1 090156Z 23009KT 19/06 A2967 RMK A01 T01850062  RH  045%=      5-min Rain = 0
KOD1 090157Z 23011KT 19/06 A2967 RMK A01 T01850062  RH  045%=      5-min Rain = 0
KOD1 090158Z 23011KT 19/06 A2967 RMK A01 T01860063  RH  045%=      5-min Rain = 0
KOD1 090159Z 23009KT 19/06 A2967 RMK A01 T01860063  RH  045%=      5-min Rain = 0
KOD1 090200Z 22011KT 19/06 A2967 RMK A01 T01850063  RH  045%=      5-min Rain = 0
KOD1 090201Z 23012KT 19/06 A2967 RMK A01 T01850063  RH  045%=      5-min Rain = 0
KOD1 090202Z 23011KT 19/06 A2967 RMK A01 T01860063  RH  044%=      5-min Rain = 0
KOD1 090203Z 23011KT 19/06 A2967 RMK A01 T01870063  RH  044%=      5-min Rain = 0
KOD1 090204Z 23012KT 19/06 A2967 RMK A01 T01870063  RH  044%=      5-min Rain = 0
KOD1 090205Z 23011KT 19/06 A2967 RMK A01 T01870064  RH  044%=      5-min Rain = 0
KOD1 090206Z 23010KT 19/06 A2967 RMK A01 T01860064  RH  045%=      5-min Rain = 0
KOD1 090207Z 23010KT 18/06 A2968 RMK A01 T01840063  RH  045%=      5-min Rain = 0
KOD1 090208Z 23010KT 18/06 A2968 RMK A01 T01830064  RH  046%=      5-min Rain = 0
KOD1 090209Z 23010KT 18/06 A2968 RMK A01 T01830064  RH  046%=      5-min Rain = 0
KOD1 090210Z 23010KT 18/06 A2968 RMK A01 T01820064  RH  046%=      5-min Rain = 0
KOD1 090211Z 23011KT 18/06 A2967 RMK A01 T01810064  RH  046%=      5-min Rain = 0
KOD1 090212Z 23010KT 18/06 A2967 RMK A01 T01810063  RH  046%=      5-min Rain = 0
KOD1 090213Z 23011KT 18/06 A2967 RMK A01 T01820064  RH  046%=      5-min Rain = 0
KOD1 090214Z 23011KT 18/06 A2967 RMK A01 T01820064  RH  046%=      5-min Rain = 0
KOD1 090215Z 23011KT 18/06 A2967 RMK A01 T01830064  RH  046%=      5-min Rain = 0
KOD1 090216Z 23011KT 18/06 A2967 RMK A01 T01830064  RH  046%=      5-min Rain = 0
KOD1 090217Z 23012KT 19/06 A2967 RMK A01 T01850063  RH  045%=      5-min Rain = 0
KOD1 090218Z 23012KT 19/06 A2967 RMK A01 T01850063  RH  045%=      5-min Rain = 0
KOD1 090219Z 23012KT 19/06 A2967 RMK A01 T01850064  RH  045%=      5-min Rain = 0
KOD1 090220Z 23011KT 19/06 A2968 RMK A01 T01850064  RH  045%=      5-min Rain = 0
KOD1 090221Z 23012KT 18/06 A2968 RMK A01 T01840064  RH  045%=      5-min Rain = 0
KOD1 090222Z 23011KT 18/06 A2968 RMK A01 T01840064  RH  045%=      5-min Rain = 0
KOD1 090223Z 24010KT 18/06 A2968 RMK A01 T01830064  RH  046%=      5-min Rain = 0
KOD1 090224Z 24010KT 18/06 A2968 RMK A01 T01820064  RH  046%=      5-min Rain = 0
KOD1 090225Z 23010KT 18/06 A2968 RMK A01 T01810064  RH  046%=      5-min Rain = 0
KOD1 090226Z 23010KT 18/06 A2968 RMK A01 T01810064  RH  046%=      5-min Rain = 0
KOD1 090227Z 24010KT 18/06 A2967 RMK A01 T01800064  RH  046%=      5-min Rain = 0
KOD1 090228Z 24010KT 18/06 A2967 RMK A01 T01800064  RH  046%=      5-min Rain = 0
KOD1 090229Z 24011KT 18/06 A2967 RMK A01 T01800064  RH  046%=      5-min Rain = 0
KOD1 090230Z 24010KT 18/06 A2967 RMK A01 T01820063  RH  046%=      5-min Rain = 0
KOD1 090231Z 24011KT 18/06 A2967 RMK A01 T01820063  RH  046%=      5-min Rain = 0
KOD1 090232Z 23011KT 18/06 A2967 RMK A01 T01830063  RH  046%=      5-min Rain = 0
KOD1 090233Z 23010KT 18/06 A2967 RMK A01 T01830063  RH  046%=      5-min Rain = 0
KOD1 090234Z 23011KT 18/06 A2967 RMK A01 T01830063  RH  045%=      5-min Rain = 0
KOD1 090235Z 23011KT 18/06 A2967 RMK A01 T01830063  RH  046%=      5-min Rain = 0
KOD1 090236Z 23011KT 18/06 A2967 RMK A01 T01830063  RH  046%=      5-min Rain = 0
KOD1 090237Z 23012KT 18/06 A2967 RMK A01 T01830063  RH  046%=      5-min Rain = 0
KOD1 090238Z 23011KT 18/06 A2967 RMK A01 T01830063  RH  045%=      5-min Rain = 0
KOD1 090239Z 23012KT 19/06 A2967 RMK A01 T01850063  RH  045%=      5-min Rain = 0
KOD1 090240Z 23012KT 19/06 A2967 RMK A01 T01850063  RH  045%=      5-min Rain = 0
KOD1 090241Z 23012KT 19/06 A2967 RMK A01 T01850062  RH  045%=      5-min Rain = 0
KOD1 090242Z 23012KT 19/06 A2967 RMK A01 T01860062  RH  044%=      5-min Rain = 0
KOD1 090243Z 23011KT 19/06 A2967 RMK A01 T01850062  RH  045%=      5-min Rain = 0
KOD1 090244Z 23012KT 19/06 A2967 RMK A01 T01850062  RH  044%=      5-min Rain = 0
KOD1 090245Z 23013KT 19/06 A2967 RMK A01 T01860062  RH  044%=      5-min Rain = 0
KOD1 090246Z 23013KT 19/06 A2967 RMK A01 T01870062  RH  044%=      5-min Rain = 0
KOD1 090247Z 23013KT 19/06 A2967 RMK A01 T01880062  RH  044%=      5-min Rain = 0
KOD1 090248Z 22013KT 19/06 A2967 RMK A01 T01880062  RH  043%=      5-min Rain = 0
KOD1 090249Z 22012KT 19/06 A2967 RMK A01 T01880062  RH  044%=      5-min Rain = 0
KOD1 090250Z 22011KT 19/06 A2967 RMK A01 T01870062  RH  044%=      5-min Rain = 0
KOD1 090251Z 22011KT 18/06 A2967 RMK A01 T01840062  RH  045%=      5-min Rain = 0
KOD1 090252Z 22013KT 18/06 A2967 RMK A01 T01840062  RH  045%=      5-min Rain = 0
KOD1 090253Z 22014KT 19/06 A2967 RMK A01 T01850062  RH  045%=      5-min Rain = 0
KOD1 090254Z 22013KT 19/06 A2967 RMK A01 T01860063  RH  044%=      5-min Rain = 0
KOD1 090255Z 23013KT 19/06 A2967 RMK A01 T01860063  RH  045%=      5-min Rain = 0
KOD1 090256Z 23012KT 19/06 A2967 RMK A01 T01850063  RH  045%=      5-min Rain = 0
KOD1 090257Z 23013KT 18/06 A2967 RMK A01 T01840063  RH  045%=      5-min Rain = 0
KOD1 090258Z 23012KT 18/06 A2967 RMK A01 T01840062  RH  045%=      5-min Rain = 0
KOD1 090259Z 23012KT 18/06 A2967 RMK A01 T01830063  RH  045%=      5-min Rain = 0
KOD1 090300Z 23011KT 18/06 A2967 RMK A01 T01830063  RH  045%=      5-min Rain = 0
KOD1 090301Z 23012KT 18/06 A2967 RMK A01 T01820063  RH  046%=      5-min Rain = 0
KOD1 090302Z 23012KT 18/06 A2967 RMK A01 T01830063  RH  045%=      5-min Rain = 0
KOD1 090303Z 23012KT 18/06 A2967 RMK A01 T01830063  RH  045%=      5-min Rain = 0
KOD1 090304Z 23012KT 18/06 A2967 RMK A01 T01820062  RH  045%=      5-min Rain = 0
KOD1 090305Z 23012KT 18/06 A2967 RMK A01 T01830063  RH  045%=      5-min Rain = 0
KOD1 090306Z 23011KT 18/06 A2967 RMK A01 T01820063  RH  046%=      5-min Rain = 0
KOD1 090307Z 23012KT 18/06 A2967 RMK A01 T01810063  RH  046%=      5-min Rain = 0
KOD1 090308Z 24012KT 18/06 A2967 RMK A01 T01810062  RH  046%=      5-min Rain = 0
KOD1 090309Z 24010KT 18/06 A2967 RMK A01 T01800062  RH  046%=      5-min Rain = 0
KOD1 090310Z 23012KT 18/06 A2967 RMK A01 T01780063  RH  047%=      5-min Rain = 0
KOD1 090311Z 24011KT 18/06 A2967 RMK A01 T01780062  RH  047%=      5-min Rain = 0
KOD1 090312Z 23012KT 18/06 A2967 RMK A01 T01780062  RH  047%=      5-min Rain = 0
KOD1 090313Z 23012KT 18/06 A2967 RMK A01 T01780062  RH  047%=      5-min Rain = 0
KOD1 090314Z 23013KT 18/06 A2967 RMK A01 T01790062  RH  046%=      5-min Rain = 0
KOD1 090315Z 23014KT 18/06 A2967 RMK A01 T01810062  RH  046%=      5-min Rain = 0
KOD1 090316Z 23015KT 18/06 A2967 RMK A01 T01820062  RH  045%=      5-min Rain = 0
KOD1 090317Z 23015KT 18/06 A2967 RMK A01 T01830062  RH  045%=      5-min Rain = 0
KOD1 090318Z 22015KT 18/06 A2967 RMK A01 T01830062  RH  045%=      5-min Rain = 0
KOD1 090319Z 23014KT 18/06 A2967 RMK A01 T01830062  RH  045%=      5-min Rain = 0
KOD1 090320Z 22014KT 18/06 A2967 RMK A01 T01820062  RH  045%=      5-min Rain = 0
KOD1 090321Z 22015KT 18/06 A2966 RMK A01 T01810062  RH  045%=      5-min Rain = 0
KOD1 090322Z 22014KT 18/06 A2966 RMK A01 T01810062  RH  046%=      5-min Rain = 0
KOD1 090323Z 22014KT 18/06 A2966 RMK A01 T01810062  RH  046%=      5-min Rain = 0
KOD1 090324Z 23014KT 18/06 A2966 RMK A01 T01800062  RH  046%=      5-min Rain = 0
KOD1 090325Z 23013KT 18/06 A2966 RMK A01 T01790062  RH  046%=      5-min Rain = 0
KOD1 090326Z 22014KT 18/06 A2966 RMK A01 T01790062  RH  046%=      5-min Rain = 0
KOD1 090327Z 22015KT 18/06 A2966 RMK A01 T01800061  RH  046%=      5-min Rain = 0
KOD1 090328Z 22014KT 18/06 A2966 RMK A01 T01810062  RH  046%=      5-min Rain = 0
KOD1 090329Z 22015KT 18/06 A2967 RMK A01 T01810062  RH  045%=      5-min Rain = 0
KOD1 090330Z 23014KT 18/06 A2967 RMK A01 T01810062  RH  046%=      5-min Rain = 0
KOD1 090331Z 22015KT 18/06 A2967 RMK A01 T01800062  RH  046%=      5-min Rain = 0
KOD1 090332Z 22015KT 18/06 A2967 RMK A01 T01790062  RH  046%=      5-min Rain = 0
KOD1 090333Z 22014KT 18/06 A2967 RMK A01 T01790062  RH  046%=      5-min Rain = 0
KOD1 090334Z 22015KT 18/06 A2967 RMK A01 T01780062  RH  047%=      5-min Rain = 0
KOD1 090335Z 22015KT 18/06 A2967 RMK A01 T01780062  RH  047%=      5-min Rain = 0
KOD1 090336Z 22015KT 18/06 A2967 RMK A01 T01780062  RH  047%=      5-min Rain = 0
KOD1 090337Z 22016KT 18/06 A2967 RMK A01 T01780062  RH  046%=      5-min Rain = 0
KOD1 090338Z 22015KT 18/06 A2967 RMK A01 T01790062  RH  046%=      5-min Rain = 0
KOD1 090339Z 22016KT 18/06 A2967 RMK A01 T01780062  RH  046%=      5-min Rain = 0
KOD1 090340Z 22016KT 18/06 A2966 RMK A01 T01790062  RH  046%=      5-min Rain = 0
KOD1 090341Z 22016KT 18/06 A2967 RMK A01 T01790062  RH  046%=      5-min Rain = 0
KOD1 090342Z 22016KT 18/06 A2967 RMK A01 T01790061  RH  046%=      5-min Rain = 0
KOD1 090343Z 22015KT 18/06 A2967 RMK A01 T01780062  RH  046%=      5-min Rain = 0
KOD1 090344Z 22015KT 18/06 A2967 RMK A01 T01770062  RH  047%=      5-min Rain = 0
KOD1 090345Z 22015KT 18/06 A2967 RMK A01 T01760062  RH  047%=      5-min Rain = 0
KOD1 090346Z 22015KT 18/06 A2967 RMK A01 T01750062  RH  047%=      5-min Rain = 0
KOD1 090347Z 22015KT 17/06 A2966 RMK A01 T01740062  RH  048%=      5-min Rain = 0
KOD1 090348Z 22014KT 17/06 A2966 RMK A01 T01730062  RH  048%=      5-min Rain = 0
KOD1 090349Z 22014KT 17/06 A2967 RMK A01 T01710062  RH  049%=      5-min Rain = 0
KOD1 090350Z 22015KT 17/06 A2966 RMK A01 T01710062  RH  048%=      5-min Rain = 0
KOD1 090351Z 22015KT 17/06 A2966 RMK A01 T01710062  RH  049%=      5-min Rain = 0
KOD1 090352Z 22014KT 17/06 A2967 RMK A01 T01710062  RH  049%=      5-min Rain = 0
KOD1 090353Z 22015KT 17/06 A2967 RMK A01 T01710062  RH  049%=      5-min Rain = 0
KOD1 090354Z 22014KT 17/06 A2966 RMK A01 T01710062  RH  049%=      5-min Rain = 0
KOD1 090355Z 22014KT 17/06 A2966 RMK A01 T01700062  RH  049%=      5-min Rain = 0
KOD1 090356Z 22014KT 17/06 A2966 RMK A01 T01690061  RH  049%=      5-min Rain = 0
KOD1 090357Z 22014KT 17/06 A2966 RMK A01 T01690061  RH  049%=      5-min Rain = 0
KOD1 090358Z 23014KT 17/06 A2966 RMK A01 T01710061  RH  048%=      5-min Rain = 0
KOD1 090359Z 22013KT 17/06 A2966 RMK A01 T01710061  RH  048%=      5-min Rain = 0
KOD1 090400Z 22014KT 17/06 A2966 RMK A01 T01700062  RH  049%=      5-min Rain = 0
KOD1 090401Z 22013KT 17/06 A2966 RMK A01 T01690062  RH  049%=      5-min Rain = 0
KOD1 090402Z 23013KT 17/06 A2966 RMK A01 T01690062  RH  049%=      5-min Rain = 0
KOD1 090403Z 23014KT 17/06 A2966 RMK A01 T01690061  RH  049%=      5-min Rain = 0
KOD1 090404Z 23013KT 17/06 A2966 RMK A01 T01700061  RH  049%=      5-min Rain = 0
KOD1 090405Z 23013KT 17/06 A2966 RMK A01 T01720061  RH  048%=      5-min Rain = 0
KOD1 090406Z 23012KT 17/06 A2966 RMK A01 T01710061  RH  048%=      5-min Rain = 0
KOD1 090407Z 23013KT 17/06 A2966 RMK A01 T01700061  RH  048%=      5-min Rain = 0
KOD1 090408Z 23012KT 17/06 A2966 RMK A01 T01710061  RH  048%=      5-min Rain = 0
KOD1 090409Z 23012KT 17/06 A2966 RMK A01 T01710061  RH  048%=      5-min Rain = 0
KOD1 090410Z 23012KT 17/06 A2966 RMK A01 T01700061  RH  049%=      5-min Rain = 0
KOD1 090411Z 22012KT 17/06 A2966 RMK A01 T01680061  RH  049%=      5-min Rain = 0
KOD1 090412Z 22011KT 17/06 A2966 RMK A01 T01660061  RH  050%=      5-min Rain = 0
KOD1 090413Z 22012KT 16/06 A2966 RMK A01 T01640061  RH  050%=      5-min Rain = 0
KOD1 090414Z 22012KT 16/06 A2967 RMK A01 T01630061  RH  051%=      5-min Rain = 0
KOD1 090415Z 22012KT 16/06 A2967 RMK A01 T01620061  RH  051%=      5-min Rain = 0
KOD1 090416Z 22013KT 16/06 A2967 RMK A01 T01620061  RH  051%=      5-min Rain = 0
KOD1 090417Z 22013KT 16/06 A2967 RMK A01 T01630061  RH  051%=      5-min Rain = 0
KOD1 090418Z 22013KT 16/06 A2967 RMK A01 T01630061  RH  051%=      5-min Rain = 0
KOD1 090419Z 22013KT 16/06 A2967 RMK A01 T01640061  RH  051%=      5-min Rain = 0
KOD1 090420Z 22013KT 16/06 A2967 RMK A01 T01640061  RH  050%=      5-min Rain = 0
KOD1 090421Z 22012KT 17/06 A2967 RMK A01 T01650061  RH  050%=      5-min Rain = 0
KOD1 090422Z 22014KT 17/06 A2967 RMK A01 T01650061  RH  050%=      5-min Rain = 0
KOD1 090423Z 22013KT 17/06 A2967 RMK A01 T01660061  RH  050%=      5-min Rain = 0
KOD1 090424Z 22013KT 17/06 A2967 RMK A01 T01660061  RH  050%=      5-min Rain = 0
KOD1 090425Z 22013KT 17/06 A2967 RMK A01 T01650061  RH  050%=      5-min Rain = 0
KOD1 090426Z 22013KT 17/06 A2967 RMK A01 T01660061  RH  050%=      5-min Rain = 0
KOD1 090427Z 22012KT 17/06 A2967 RMK A01 T01650061  RH  050%=      5-min Rain = 0
KOD1 090428Z 22012KT 16/06 A2967 RMK A01 T01640061  RH  050%=      5-min Rain = 0
KOD1 090429Z 22013KT 16/06 A2966 RMK A01 T01640061  RH  050%=      5-min Rain = 0
KOD1 090430Z 22012KT 17/06 A2966 RMK A01 T01660061  RH  050%=      5-min Rain = 0
KOD1 090431Z 22011KT 17/06 A2966 RMK A01 T01650061  RH  050%=      5-min Rain = 0
KOD1 090432Z 21012KT 16/06 A2966 RMK A01 T01630061  RH  051%=      5-min Rain = 0
KOD1 090433Z 21012KT 16/06 A2966 RMK A01 T01620061  RH  051%=      5-min Rain = 0
KOD1 090434Z 22011KT 16/06 A2966 RMK A01 T01620061  RH  051%=      5-min Rain = 0
KOD1 090435Z 22013KT 16/06 A2966 RMK A01 T01630061  RH  051%=      5-min Rain = 0
KOD1 090436Z 22014KT 17/06 A2966 RMK A01 T01660060  RH  049%=      5-min Rain = 0
KOD1 090437Z 22013KT 17/06 A2966 RMK A01 T01680061  RH  049%=      5-min Rain = 0
KOD1 090438Z 22013KT 17/06 A2966 RMK A01 T01670061  RH  050%=      5-min Rain = 0
KOD1 090439Z 22013KT 17/06 A2967 RMK A01 T01670061  RH  050%=      5-min Rain = 0
KOD1 090440Z 22013KT 17/06 A2967 RMK A01 T01660061  RH  050%=      5-min Rain = 0
KOD1 090441Z 22014KT 17/06 A2967 RMK A01 T01660060  RH  049%=      5-min Rain = 0
KOD1 090442Z 22013KT 17/06 A2967 RMK A01 T01670061  RH  050%=      5-min Rain = 0
KOD1 090443Z 22012KT 17/06 A2967 RMK A01 T01660061  RH  050%=      5-min Rain = 0
KOD1 090444Z 22013KT 16/06 A2967 RMK A01 T01640061  RH  050%=      5-min Rain = 0
KOD1 090445Z 22013KT 16/06 A2966 RMK A01 T01640061  RH  051%=      5-min Rain = 0
KOD1 090446Z 22012KT 16/06 A2966 RMK A01 T01630061  RH  051%=      5-min Rain = 0
KOD1 090447Z 22014KT 16/06 A2967 RMK A01 T01630061  RH  051%=      5-min Rain = 0
KOD1 090448Z 22014KT 17/06 A2967 RMK A01 T01650060  RH  050%=      5-min Rain = 0
KOD1 090449Z 22015KT 17/06 A2967 RMK A01 T01670060  RH  049%=      5-min Rain = 0
KOD1 090450Z 22014KT 17/06 A2967 RMK A01 T01680060  RH  049%=      5-min Rain = 0
KOD1 090451Z 22015KT 17/06 A2967 RMK A01 T01680060  RH  049%=      5-min Rain = 0
KOD1 090452Z 23016KT 17/06 A2966 RMK A01 T01700060  RH  048%=      5-min Rain = 0
KOD1 090453Z 23014KT 17/06 A2966 RMK A01 T01700060  RH  048%=      5-min Rain = 0
KOD1 090454Z 23014KT 17/06 A2966 RMK A01 T01710060  RH  048%=      5-min Rain = 0
KOD1 090455Z 23013KT 17/06 A2966 RMK A01 T01710060  RH  048%=      5-min Rain = 0
KOD1 090456Z 24013KT 17/06 A2966 RMK A01 T01700060  RH  048%=      5-min Rain = 0
KOD1 090457Z 23014KT 17/06 A2966 RMK A01 T01700060  RH  048%=      5-min Rain = 0
KOD1 090458Z 23014KT 17/06 A2966 RMK A01 T01700060  RH  048%=      5-min Rain = 0
KOD1 090459Z 24015KT 17/06 A2966 RMK A01 T01710059  RH  048%=      5-min Rain = 0
KOD1 090500Z 23016KT 17/06 A2966 RMK A01 T01730059  RH  047%=      5-min Rain = 0
KOD1 090501Z 23015KT 17/06 A2966 RMK A01 T01730059  RH  047%=      5-min Rain = 0
KOD1 090502Z 23015KT 17/06 A2966 RMK A01 T01720059  RH  047%=      5-min Rain = 0
KOD1 090503Z 23014KT 17/06 A2966 RMK A01 T01710059  RH  048%=      5-min Rain = 0
KOD1 090504Z 24015KT 17/06 A2966 RMK A01 T01700058  RH  048%=      5-min Rain = 0
KOD1 090505Z 24015KT 17/06 A2966 RMK A01 T01710058  RH  047%=      5-min Rain = 0
KOD1 090506Z 23015KT 17/06 A2966 RMK A01 T01710058  RH  047%=      5-min Rain = 0
KOD1 090507Z 23014KT 17/06 A2966 RMK A01 T01710058  RH  047%=      5-min Rain = 0
KOD1 090508Z 23015KT 17/06 A2966 RMK A01 T01710058  RH  047%=      5-min Rain = 0
KOD1 090509Z 23014KT 17/06 A2966 RMK A01 T01700058  RH  048%=      5-min Rain = 0
KOD1 090510Z 24015KT 17/06 A2966 RMK A01 T01700058  RH  048%=      5-min Rain = 0
KOD1 090511Z 24014KT 17/06 A2966 RMK A01 T01700057  RH  047%=      5-min Rain = 0
KOD1 090512Z 24012KT 17/06 A2966 RMK A01 T01700057  RH  047%=      5-min Rain = 0
KOD1 090513Z 24014KT 17/06 A2966 RMK A01 T01690057  RH  048%=      5-min Rain = 0
KOD1 090514Z 24013KT 17/06 A2967 RMK A01 T01680057  RH  048%=      5-min Rain = 0
KOD1 090515Z 24012KT 17/06 A2967 RMK A01 T01670057  RH  048%=      5-min Rain = 0
KOD1 090516Z 24011KT 17/06 A2967 RMK A01 T01660058  RH  049%=      5-min Rain = 0
KOD1 090517Z 25012KT 17/06 A2967 RMK A01 T01660057  RH  049%=      5-min Rain = 0
KOD1 090518Z 24012KT 17/06 A2967 RMK A01 T01650057  RH  049%=      5-min Rain = 0
KOD1 090519Z 25012KT 17/06 A2967 RMK A01 T01650057  RH  049%=      5-min Rain = 0
KOD1 090520Z 25011KT 17/06 A2967 RMK A01 T01650057  RH  049%=      5-min Rain = 0
KOD1 090521Z 25011KT 17/06 A2967 RMK A01 T01650057  RH  049%=      5-min Rain = 0
KOD1 090522Z 25011KT 16/06 A2967 RMK A01 T01640056  RH  049%=      5-min Rain = 0
KOD1 090523Z 26011KT 16/06 A2967 RMK A01 T01640056  RH  049%=      5-min Rain = 0
KOD1 090524Z 26011KT 16/06 A2967 RMK A01 T01640055  RH  049%=      5-min Rain = 0
KOD1 090525Z 26010KT 16/06 A2967 RMK A01 T01640056  RH  049%=      5-min Rain = 0
KOD1 090526Z 26011KT 16/06 A2967 RMK A01 T01630056  RH  049%=      5-min Rain = 0
KOD1 090527Z 26009KT 16/06 A2967 RMK A01 T01630056  RH  049%=      5-min Rain = 0
KOD1 090528Z 26010KT 16/06 A2967 RMK A01 T01620056  RH  049%=      5-min Rain = 0
KOD1 090529Z 26009KT 16/06 A2967 RMK A01 T01600055  RH  050%=      5-min Rain = 0
KOD1 090530Z 26009KT 16/06 A2967 RMK A01 T01590055  RH  050%=      5-min Rain = 0
KOD1 090531Z 26009KT 16/06 A2967 RMK A01 T01570055  RH  051%=      5-min Rain = 0
KOD1 090532Z 26009KT 16/06 A2967 RMK A01 T01560055  RH  051%=      5-min Rain = 0
KOD1 090533Z 26010KT 16/05 A2967 RMK A01 T01570054  RH  050%=      5-min Rain = 0
KOD1 090534Z 26010KT 16/05 A2967 RMK A01 T01600053  RH  049%=      5-min Rain = 0
KOD1 090535Z 25010KT 16/05 A2967 RMK A01 T01610053  RH  049%=      5-min Rain = 0
KOD1 090536Z 26011KT 16/05 A2967 RMK A01 T01620052  RH  048%=      5-min Rain = 0
KOD1 090537Z 25011KT 17/05 A2967 RMK A01 T01650051  RH  047%=      5-min Rain = 0
KOD1 090538Z 25012KT 17/05 A2967 RMK A01 T01660050  RH  046%=      5-min Rain = 0
KOD1 090539Z 25011KT 17/05 A2967 RMK A01 T01680049  RH  045%=      5-min Rain = 0
KOD1 090540Z 25012KT 17/05 A2967 RMK A01 T01690049  RH  045%=      5-min Rain = 0
KOD1 090541Z 25011KT 17/05 A2967 RMK A01 T01700049  RH  045%=      5-min Rain = 0
KOD1 090542Z 25012KT 17/05 A2967 RMK A01 T01700048  RH  044%=      5-min Rain = 0
KOD1 090543Z 25012KT 17/05 A2967 RMK A01 T01720048  RH  044%=      5-min Rain = 0
KOD1 090544Z 25013KT 17/05 A2968 RMK A01 T01730047  RH  043%=      5-min Rain = 0
KOD1 090545Z 26013KT 17/05 A2967 RMK A01 T01740046  RH  043%=      5-min Rain = 0
KOD1 090546Z 25011KT 18/05 A2967 RMK A01 T01750046  RH  042%=      5-min Rain = 0
KOD1 090547Z 25015KT 18/05 A2968 RMK A01 T01750045  RH  042%=      5-min Rain = 0
KOD1 090548Z 25014KT 18/05 A2968 RMK A01 T01750045  RH  042%=      5-min Rain = 0
KOD1 090549Z 25012KT 18/04 A2968 RMK A01 T01760044  RH  042%=      5-min Rain = 0
KOD1 090550Z 25015KT 18/04 A2968 RMK A01 T01760043  RH  041%=      5-min Rain = 0
KOD1 090551Z 25013KT 18/04 A2968 RMK A01 T01780043  RH  041%=      5-min Rain = 0
KOD1 090552Z 25012KT 18/04 A2968 RMK A01 T01760044  RH  041%=      5-min Rain = 0
KOD1 090553Z 25012KT 17/04 A2967 RMK A01 T01740043  RH  042%=      5-min Rain = 0
KOD1 090554Z 25011KT 17/04 A2967 RMK A01 T01730043  RH  042%=      5-min Rain = 0
KOD1 090555Z 25011KT 17/04 A2967 RMK A01 T01710043  RH  043%=      5-min Rain = 0
KOD1 090556Z 26012KT 17/04 A2967 RMK A01 T01720043  RH  042%=      5-min Rain = 0
KOD1 090557Z 25013KT 17/04 A2967 RMK A01 T01720042  RH  042%=      5-min Rain = 0
KOD1 090558Z 25013KT 17/04 A2967 RMK A01 T01740042  RH  042%=      5-min Rain = 0
KOD1 090559Z 25012KT 17/04 A2967 RMK A01 T01730042  RH  042%=      5-min Rain = 0

Page generated in 0.1225 seconds.